Wetterdaten: Dienstag, 25.10.2022
Datum Zeit Temp. 2m Temp +5 cm Feuchte A. Luftdruck Regen Wind Richtung Richtung Sonnenschein UV Solar Taupunkt Windchill Windben
25.10.2022 00:00 12,1 C 11,1 C 88 % 1014,5 hPa 0,0 l/m 13,1 km/h (3 Bft) S-SW 199 0 min 0,0 UV-I 0 W/m 10,2 C 8,4 C 17,7 km/h (3 Bft)
25.10.2022 00:03 12,1 C 11,1 C 88 % 1014,6 hPa 0,0 l/m 14,1 km/h (3 Bft) S-SW 192 0 min 0,0 UV-I 0 W/m 10,2 C 8,0 C 20,9 km/h (4 Bft)
25.10.2022 00:06 12,0 C 11,1 C 88 % 1014,7 hPa 0,0 l/m 11,8 km/h (2 Bft) S 189 0 min 0,0 UV-I 0 W/m 10,1 C 8,9 C 17,7 km/h (3 Bft)
25.10.2022 00:09 12,0 C 11,1 C 88 % 1014,7 hPa 0,0 l/m 12,3 km/h (3 Bft) SW 215 0 min 0,0 UV-I 0 W/m 10,1 C 8,7 C 22,5 km/h (4 Bft)
25.10.2022 00:12 12,1 C 11,7 C 88 % 1014,8 hPa 0,0 l/m 12,5 km/h (3 Bft) S-SW 209 0 min 0,0 UV-I 0 W/m 10,2 C 8,7 C 20,9 km/h (4 Bft)
25.10.2022 00:15 12,1 C 11,7 C 88 % 1014,8 hPa 0,0 l/m 14,8 km/h (3 Bft) S-SW 192 0 min 0,0 UV-I 0 W/m 10,2 C 7,8 C 27,4 km/h (4 Bft)
25.10.2022 00:18 12,2 C 11,7 C 88 % 1014,8 hPa 0,0 l/m 15,4 km/h (3 Bft) S 180 0 min 0,0 UV-I 0 W/m 10,3 C 7,6 C 22,5 km/h (4 Bft)
25.10.2022 00:21 12,2 C 11,7 C 88 % 1014,9 hPa 0,0 l/m 13,2 km/h (3 Bft) S-SW 205 0 min 0,0 UV-I 0 W/m 10,3 C 8,5 C 22,5 km/h (4 Bft)
25.10.2022 00:24 12,2 C 11,7 C 88 % 1014,8 hPa 0,0 l/m 13,4 km/h (3 Bft) S 188 0 min 0,0 UV-I 0 W/m 10,3 C 8,4 C 20,9 km/h (4 Bft)
25.10.2022 00:27 12,1 C 11,1 C 88 % 1014,9 hPa 0,0 l/m 10,5 km/h (2 Bft) S-SW 208 0 min 0,0 UV-I 0 W/m 10,2 C 9,7 C 19,3 km/h (3 Bft)
25.10.2022 00:30 12,1 C 11,1 C 88 % 1014,9 hPa 0,0 l/m 12,5 km/h (3 Bft) S 178 0 min 0,0 UV-I 0 W/m 10,2 C 8,7 C 19,3 km/h (3 Bft)
25.10.2022 00:33 12,1 C 11,1 C 88 % 1014,9 hPa 0,0 l/m 14,7 km/h (3 Bft) S 178 0 min 0,0 UV-I 0 W/m 10,2 C 7,8 C 22,5 km/h (4 Bft)
25.10.2022 00:36 12,1 C 11,1 C 88 % 1014,9 hPa 0,0 l/m 14,8 km/h (3 Bft) S 174 0 min 0,0 UV-I 0 W/m 10,2 C 7,8 C 29,0 km/h (5 Bft)
25.10.2022 00:39 12,0 C 11,1 C 88 % 1014,9 hPa 0,0 l/m 11,6 km/h (2 Bft) SW 214 0 min 0,0 UV-I 0 W/m 10,1 C 9,0 C 22,5 km/h (4 Bft)
25.10.2022 00:42 12,0 C 11,1 C 88 % 1014,9 hPa 0,0 l/m 14,3 km/h (3 Bft) S 173 0 min 0,0 UV-I 0 W/m 10,1 C 7,8 C 24,1 km/h (4 Bft)
25.10.2022 00:45 12,0 C 11,1 C 89 % 1014,9 hPa 0,0 l/m 14,0 km/h (3 Bft) S-SW 212 0 min 0,0 UV-I 0 W/m 10,2 C 8,0 C 20,9 km/h (4 Bft)
25.10.2022 00:48 12,0 C 11,1 C 89 % 1015,0 hPa 0,0 l/m 12,9 km/h (3 Bft) S-SW 199 0 min 0,0 UV-I 0 W/m 10,2 C 8,4 C 19,3 km/h (3 Bft)
25.10.2022 00:51 12,1 C 11,1 C 89 % 1014,9 hPa 0,0 l/m 12,3 km/h (3 Bft) S-SW 204 0 min 0,0 UV-I 0 W/m 10,3 C 8,8 C 17,7 km/h (3 Bft)
25.10.2022 00:54 12,1 C 11,7 C 89 % 1014,9 hPa 0,0 l/m 13,1 km/h (3 Bft) S-SW 213 0 min 0,0 UV-I 0 W/m 10,3 C 8,4 C 20,9 km/h (4 Bft)
25.10.2022 00:57 12,1 C 11,7 C 89 % 1015,0 hPa 0,0 l/m 10,8 km/h (2 Bft) S 190 0 min 0,0 UV-I 0 W/m 10,3 C 9,5 C 16,1 km/h (3 Bft)
25.10.2022 01:00 12,1 C 11,7 C 89 % 1015,1 hPa 0,0 l/m 11,3 km/h (2 Bft) SW 227 0 min 0,0 UV-I 0 W/m 10,3 C 9,3 C 19,3 km/h (3 Bft)
25.10.2022 01:03 12,1 C 11,7 C 89 % 1015,1 hPa 0,0 l/m 10,8 km/h (2 Bft) S-SW 207 0 min 0,0 UV-I 0 W/m 10,3 C 9,5 C 14,5 km/h (3 Bft)
25.10.2022 01:06 12,1 C 11,7 C 89 % 1015,1 hPa 0,0 l/m 9,5 km/h (2 Bft) SW 217 0 min 0,0 UV-I 0 W/m 10,3 C 10,2 C 17,7 km/h (3 Bft)
25.10.2022 01:09 12,1 C 11,1 C 89 % 1015,1 hPa 0,0 l/m 15,2 km/h (3 Bft) S 181 0 min 0,0 UV-I 0 W/m 10,3 C 7,6 C 24,1 km/h (4 Bft)
25.10.2022 01:12 12,1 C 11,1 C 89 % 1015,2 hPa 0,0 l/m 16,2 km/h (3 Bft) S-SW 212 0 min 0,0 UV-I 0 W/m 10,3 C 7,2 C 24,1 km/h (4 Bft)
25.10.2022 01:15 12,1 C 11,1 C 89 % 1015,2 hPa 0,0 l/m 14,2 km/h (3 Bft) S-SW 198 0 min 0,0 UV-I 0 W/m 10,3 C 8,0 C 22,5 km/h (4 Bft)
25.10.2022 01:18 12,1 C 11,1 C 89 % 1015,2 hPa 0,0 l/m 12,6 km/h (3 Bft) S-SW 205 0 min 0,0 UV-I 0 W/m 10,3 C 8,7 C 25,7 km/h (4 Bft)
25.10.2022 01:21 12,1 C 11,1 C 89 % 1015,2 hPa 0,0 l/m 13,7 km/h (3 Bft) S-SW 202 0 min 0,0 UV-I 0 W/m 10,3 C 8,2 C 27,4 km/h (4 Bft)
25.10.2022 01:24 12,1 C 11,7 C 89 % 1015,2 hPa 0,0 l/m 14,1 km/h (3 Bft) S 175 0 min 0,0 UV-I 0 W/m 10,3 C 8,0 C 20,9 km/h (4 Bft)
25.10.2022 01:27 12,1 C 11,7 C 89 % 1015,3 hPa 0,0 l/m 14,8 km/h (3 Bft) S 185 0 min 0,0 UV-I 0 W/m 10,3 C 7,8 C 24,1 km/h (4 Bft)
25.10.2022 01:30 12,1 C 11,7 C 89 % 1015,2 hPa 0,0 l/m 14,1 km/h (3 Bft) S-SO 158 0 min 0,0 UV-I 0 W/m 10,3 C 8,0 C 22,5 km/h (4 Bft)
25.10.2022 01:33 12,1 C 11,7 C 89 % 1015,3 hPa 0,0 l/m 14,6 km/h (3 Bft) S 190 0 min 0,0 UV-I 0 W/m 10,3 C 7,8 C 22,5 km/h (4 Bft)
25.10.2022 01:36 12,1 C 11,7 C 89 % 1015,4 hPa 0,0 l/m 12,5 km/h (3 Bft) S-SW 210 0 min 0,0 UV-I 0 W/m 10,3 C 8,7 C 22,5 km/h (4 Bft)
25.10.2022 01:39 12,1 C 11,7 C 89 % 1015,2 hPa 0,0 l/m 11,5 km/h (2 Bft) S-SO 165 0 min 0,0 UV-I 0 W/m 10,3 C 9,2 C 16,1 km/h (3 Bft)
25.10.2022 01:42 12,1 C 11,7 C 89 % 1015,4 hPa 0,0 l/m 14,3 km/h (3 Bft) S 178 0 min 0,0 UV-I 0 W/m 10,3 C 8,0 C 22,5 km/h (4 Bft)
25.10.2022 01:45 12,1 C 11,7 C 89 % 1015,4 hPa 0,0 l/m 14,3 km/h (3 Bft) S-SW 203 0 min 0,0 UV-I 0 W/m 10,3 C 8,0 C 22,5 km/h (4 Bft)
25.10.2022 01:48 12,1 C 11,7 C 89 % 1015,3 hPa 0,0 l/m 14,0 km/h (3 Bft) S 184 0 min 0,0 UV-I 0 W/m 10,3 C 8,1 C 25,7 km/h (4 Bft)
25.10.2022 01:51 12,1 C 11,7 C 89 % 1015,4 hPa 0,0 l/m 12,0 km/h (2 Bft) S 176 0 min 0,0 UV-I 0 W/m 10,3 C 8,9 C 19,3 km/h (3 Bft)
25.10.2022 01:54 12,1 C 11,7 C 89 % 1015,4 hPa 0,0 l/m 17,2 km/h (3 Bft) S 178 0 min 0,0 UV-I 0 W/m 10,3 C 6,9 C 27,4 km/h (4 Bft)
25.10.2022 01:57 12,1 C 11,7 C 89 % 1015,5 hPa 0,0 l/m 17,2 km/h (3 Bft) S 184 0 min 0,0 UV-I 0 W/m 10,3 C 6,9 C 30,6 km/h (5 Bft)
25.10.2022 02:00 12,1 C 11,7 C 89 % 1015,5 hPa 0,0 l/m 16,2 km/h (3 Bft) S-SW 203 0 min 0,0 UV-I 0 W/m 10,3 C 7,2 C 25,7 km/h (4 Bft)
25.10.2022 02:03 12,0 C 11,7 C 89 % 1015,5 hPa 0,0 l/m 16,0 km/h (3 Bft) SW 218 0 min 0,0 UV-I 0 W/m 10,2 C 7,2 C 24,1 km/h (4 Bft)
25.10.2022 02:06 12,1 C 11,7 C 89 % 1015,5 hPa 0,0 l/m 16,9 km/h (3 Bft) S-SW 196 0 min 0,0 UV-I 0 W/m 10,3 C 7,0 C 24,1 km/h (4 Bft)
25.10.2022 02:09 12,0 C 11,7 C 89 % 1015,4 hPa 0,0 l/m 13,1 km/h (3 Bft) S-SW 200 0 min 0,0 UV-I 0 W/m 10,2 C 8,3 C 22,5 km/h (4 Bft)
25.10.2022 02:12 12,0 C 11,7 C 89 % 1015,4 hPa 0,0 l/m 14,6 km/h (3 Bft) S-SW 195 0 min 0,0 UV-I 0 W/m 10,2 C 7,7 C 24,1 km/h (4 Bft)
25.10.2022 02:15 12,0 C 11,7 C 89 % 1015,5 hPa 0,0 l/m 15,9 km/h (3 Bft) S 174 0 min 0,0 UV-I 0 W/m 10,2 C 7,2 C 29,0 km/h (5 Bft)
25.10.2022 02:18 12,0 C 11,7 C 89 % 1015,5 hPa 0,0 l/m 15,4 km/h (3 Bft) S 176 0 min 0,0 UV-I 0 W/m 10,2 C 7,4 C 27,4 km/h (4 Bft)
25.10.2022 02:21 11,9 C 11,7 C 89 % 1015,3 hPa 0,0 l/m 13,7 km/h (3 Bft) SW 214 0 min 0,0 UV-I 0 W/m 10,1 C 8,0 C 22,5 km/h (4 Bft)
25.10.2022 02:24 12,0 C 11,7 C 89 % 1015,5 hPa 0,0 l/m 16,9 km/h (3 Bft) S-SW 202 0 min 0,0 UV-I 0 W/m 10,2 C 6,9 C 25,7 km/h (4 Bft)
25.10.2022 02:27 12,0 C 11,7 C 89 % 1015,4 hPa 0,0 l/m 13,4 km/h (3 Bft) S 175 0 min 0,0 UV-I 0 W/m 10,2 C 8,2 C 20,9 km/h (4 Bft)
25.10.2022 02:30 12,0 C 11,7 C 89 % 1015,4 hPa 0,0 l/m 14,2 km/h (3 Bft) S 188 0 min 0,0 UV-I 0 W/m 10,2 C 7,9 C 22,5 km/h (4 Bft)
25.10.2022 02:33 12,0 C 11,7 C 89 % 1015,6 hPa 0,0 l/m 10,4 km/h (2 Bft) S-SW 196 0 min 0,0 UV-I 0 W/m 10,2 C 9,6 C 19,3 km/h (3 Bft)
25.10.2022 02:36 11,9 C 11,7 C 89 % 1015,6 hPa 0,0 l/m 14,9 km/h (3 Bft) S-SW 209 0 min 0,0 UV-I 0 W/m 10,1 C 7,5 C 25,7 km/h (4 Bft)
25.10.2022 02:39 11,9 C 11,1 C 89 % 1015,4 hPa 0,0 l/m 14,2 km/h (3 Bft) S 185 0 min 0,0 UV-I 0 W/m 10,1 C 7,8 C 20,9 km/h (4 Bft)
25.10.2022 02:42 11,9 C 11,1 C 89 % 1015,5 hPa 0,0 l/m 15,5 km/h (3 Bft) S-SW 194 0 min 0,0 UV-I 0 W/m 10,1 C 7,2 C 22,5 km/h (4 Bft)
25.10.2022 02:45 11,9 C 11,1 C 89 % 1015,5 hPa 0,0 l/m 13,7 km/h (3 Bft) S-SO 167 0 min 0,0 UV-I 0 W/m 10,1 C 8,0 C 20,9 km/h (4 Bft)
25.10.2022 02:48 11,9 C 11,1 C 89 % 1015,5 hPa 0,0 l/m 12,5 km/h (3 Bft) S-SO 157 0 min 0,0 UV-I 0 W/m 10,1 C 8,5 C 20,9 km/h (4 Bft)
25.10.2022 02:51 11,9 C 11,1 C 89 % 1015,5 hPa 0,0 l/m 14,2 km/h (3 Bft) S-SW 213 0 min 0,0 UV-I 0 W/m 10,1 C 7,8 C 24,1 km/h (4 Bft)
25.10.2022 02:54 11,9 C 11,7 C 89 % 1015,6 hPa 0,0 l/m 11,0 km/h (2 Bft) S 181 0 min 0,0 UV-I 0 W/m 10,1 C 9,2 C 20,9 km/h (4 Bft)
25.10.2022 02:57 11,9 C 11,7 C 89 % 1015,5 hPa 0,0 l/m 13,3 km/h (3 Bft) SW 231 0 min 0,0 UV-I 0 W/m 10,1 C 8,1 C 22,5 km/h (4 Bft)
25.10.2022 03:00 11,9 C 11,1 C 89 % 1015,6 hPa 0,0 l/m 15,2 km/h (3 Bft) S 188 0 min 0,0 UV-I 0 W/m 10,1 C 7,4 C 25,7 km/h (4 Bft)
25.10.2022 03:03 11,9 C 11,1 C 89 % 1015,7 hPa 0,0 l/m 16,3 km/h (3 Bft) S 179 0 min 0,0 UV-I 0 W/m 10,1 C 7,0 C 33,8 km/h (5 Bft)
25.10.2022 03:06 11,8 C 11,1 C 89 % 1015,6 hPa 0,0 l/m 13,3 km/h (3 Bft) S 179 0 min 0,0 UV-I 0 W/m 10,0 C 8,0 C 17,7 km/h (3 Bft)
25.10.2022 03:09 11,8 C 11,1 C 89 % 1015,7 hPa 0,0 l/m 13,2 km/h (3 Bft) S 182 0 min 0,0 UV-I 0 W/m 10,0 C 8,1 C 22,5 km/h (4 Bft)
25.10.2022 03:12 11,8 C 11,1 C 89 % 1015,7 hPa 0,0 l/m 14,0 km/h (3 Bft) S-SW 199 0 min 0,0 UV-I 0 W/m 10,0 C 7,7 C 17,7 km/h (3 Bft)
25.10.2022 03:15 11,8 C 11,1 C 89 % 1015,8 hPa 0,0 l/m 12,8 km/h (3 Bft) S-SO 161 0 min 0,0 UV-I 0 W/m 10,0 C 8,2 C 20,9 km/h (4 Bft)
25.10.2022 03:18 11,8 C 11,1 C 89 % 1015,6 hPa 0,0 l/m 10,6 km/h (2 Bft) S-SO 167 0 min 0,0 UV-I 0 W/m 10,0 C 9,3 C 16,1 km/h (3 Bft)
25.10.2022 03:21 11,8 C 11,1 C 89 % 1015,7 hPa 0,0 l/m 13,3 km/h (3 Bft) S 180 0 min 0,0 UV-I 0 W/m 10,0 C 8,0 C 24,1 km/h (4 Bft)
25.10.2022 03:24 11,8 C 11,1 C 89 % 1015,7 hPa 0,0 l/m 12,3 km/h (3 Bft) S 171 0 min 0,0 UV-I 0 W/m 10,0 C 8,4 C 25,7 km/h (4 Bft)
25.10.2022 03:27 11,8 C 11,1 C 89 % 1015,7 hPa 0,0 l/m 10,8 km/h (2 Bft) S 173 0 min 0,0 UV-I 0 W/m 10,0 C 9,2 C 22,5 km/h (4 Bft)
25.10.2022 03:30 11,8 C 11,1 C 89 % 1015,7 hPa 0,0 l/m 13,6 km/h (3 Bft) S 189 0 min 0,0 UV-I 0 W/m 10,0 C 7,9 C 19,3 km/h (3 Bft)
25.10.2022 03:33 11,7 C 11,1 C 89 % 1015,7 hPa 0,0 l/m 16,6 km/h (3 Bft) S-SW 196 0 min 0,0 UV-I 0 W/m 9,9 C 6,6 C 25,7 km/h (4 Bft)
25.10.2022 03:36 11,8 C 11,1 C 89 % 1015,9 hPa 0,0 l/m 14,5 km/h (3 Bft) S-SW 207 0 min 0,0 UV-I 0 W/m 10,0 C 7,5 C 22,5 km/h (4 Bft)
25.10.2022 03:39 11,7 C 11,1 C 89 % 1015,8 hPa 0,0 l/m 15,1 km/h (3 Bft) S-SO 165 0 min 0,0 UV-I 0 W/m 9,9 C 7,2 C 27,4 km/h (4 Bft)
25.10.2022 03:42 11,7 C 11,1 C 89 % 1015,8 hPa 0,0 l/m 16,3 km/h (3 Bft) S-SO 150 0 min 0,0 UV-I 0 W/m 9,9 C 6,7 C 22,5 km/h (4 Bft)
25.10.2022 03:45 11,7 C 11,1 C 89 % 1015,8 hPa 0,0 l/m 18,4 km/h (3 Bft) S-SW 209 0 min 0,0 UV-I 0 W/m 9,9 C 6,0 C 27,4 km/h (4 Bft)
25.10.2022 03:48 11,7 C 11,1 C 89 % 1015,9 hPa 0,0 l/m 13,0 km/h (3 Bft) S-SO 147 0 min 0,0 UV-I 0 W/m 9,9 C 8,0 C 22,5 km/h (4 Bft)
25.10.2022 03:51 11,7 C 11,1 C 89 % 1015,9 hPa 0,0 l/m 13,4 km/h (3 Bft) SW 221 0 min 0,0 UV-I 0 W/m 9,9 C 7,8 C 19,3 km/h (3 Bft)
25.10.2022 03:54 11,7 C 11,1 C 89 % 1015,8 hPa 0,0 l/m 12,6 km/h (3 Bft) S 173 0 min 0,0 UV-I 0 W/m 9,9 C 8,2 C 20,9 km/h (4 Bft)
25.10.2022 03:57 11,7 C 11,1 C 90 % 1015,8 hPa 0,0 l/m 11,9 km/h (2 Bft) S-SW 194 0 min 0,0 UV-I 0 W/m 10,1 C 8,5 C 17,7 km/h (3 Bft)
25.10.2022 04:00 11,7 C 11,1 C 90 % 1015,8 hPa 0,0 l/m 12,8 km/h (3 Bft) S-SW 196 0 min 0,0 UV-I 0 W/m 10,1 C 8,1 C 24,1 km/h (4 Bft)
25.10.2022 04:03 11,7 C 11,1 C 90 % 1015,8 hPa 0,0 l/m 12,9 km/h (3 Bft) S-SW 209 0 min 0,0 UV-I 0 W/m 10,1 C 8,1 C 19,3 km/h (3 Bft)
25.10.2022 04:06 11,7 C 11,1 C 90 % 1015,9 hPa 0,0 l/m 12,1 km/h (2 Bft) S-SW 204 0 min 0,0 UV-I 0 W/m 10,1 C 8,4 C 16,1 km/h (3 Bft)
25.10.2022 04:09 11,7 C 11,1 C 90 % 1015,9 hPa 0,0 l/m 11,8 km/h (2 Bft) S-SW 201 0 min 0,0 UV-I 0 W/m 10,1 C 8,6 C 19,3 km/h (3 Bft)
25.10.2022 04:12 11,6 C 11,1 C 90 % 1015,8 hPa 0,0 l/m 12,2 km/h (2 Bft) SW 219 0 min 0,0 UV-I 0 W/m 10,0 C 8,3 C 19,3 km/h (3 Bft)
25.10.2022 04:15 11,7 C 11,1 C 90 % 1015,9 hPa 0,0 l/m 13,6 km/h (3 Bft) S 174 0 min 0,0 UV-I 0 W/m 10,1 C 7,8 C 22,5 km/h (4 Bft)
25.10.2022 04:18 11,6 C 11,1 C 90 % 1016,0 hPa 0,0 l/m 12,3 km/h (3 Bft) S-SW 203 0 min 0,0 UV-I 0 W/m 10,0 C 8,2 C 19,3 km/h (3 Bft)
25.10.2022 04:21 11,6 C 11,1 C 90 % 1015,9 hPa 0,0 l/m 16,7 km/h (3 Bft) S 191 0 min 0,0 UV-I 0 W/m 10,0 C 6,4 C 25,7 km/h (4 Bft)
25.10.2022 04:24 11,6 C 11,1 C 90 % 1015,9 hPa 0,0 l/m 14,6 km/h (3 Bft) S 190 0 min 0,0 UV-I 0 W/m 10,0 C 7,2 C 24,1 km/h (4 Bft)
25.10.2022 04:27 11,6 C 11,1 C 90 % 1015,8 hPa 0,0 l/m 10,3 km/h (2 Bft) S 176 0 min 0,0 UV-I 0 W/m 10,0 C 9,2 C 16,1 km/h (3 Bft)
25.10.2022 04:30 11,6 C 11,1 C 90 % 1015,8 hPa 0,0 l/m 13,7 km/h (3 Bft) S-SW 199 0 min 0,0 UV-I 0 W/m 10,0 C 7,6 C 20,9 km/h (4 Bft)
25.10.2022 04:33 11,6 C 11,1 C 90 % 1015,9 hPa 0,0 l/m 13,8 km/h (3 Bft) S-SW 194 0 min 0,0 UV-I 0 W/m 10,0 C 7,6 C 20,9 km/h (4 Bft)
25.10.2022 04:36 11,6 C 11,1 C 90 % 1016,0 hPa 0,0 l/m 16,0 km/h (3 Bft) S 190 0 min 0,0 UV-I 0 W/m 10,0 C 6,7 C 24,1 km/h (4 Bft)
25.10.2022 04:39 11,6 C 11,1 C 90 % 1015,9 hPa 0,0 l/m 12,7 km/h (3 Bft) S-SW 194 0 min 0,0 UV-I 0 W/m 10,0 C 8,0 C 19,3 km/h (3 Bft)
25.10.2022 04:42 11,7 C 11,1 C 90 % 1015,9 hPa 0,0 l/m 13,6 km/h (3 Bft) S 179 0 min 0,0 UV-I 0 W/m 10,1 C 7,8 C 25,7 km/h (4 Bft)
25.10.2022 04:45 11,7 C 11,1 C 89 % 1015,8 hPa 0,0 l/m 12,2 km/h (2 Bft) S-SO 160 0 min 0,0 UV-I 0 W/m 9,9 C 8,4 C 22,5 km/h (4 Bft)
25.10.2022 04:48 11,6 C 11,1 C 89 % 1015,9 hPa 0,0 l/m 14,1 km/h (3 Bft) S-SW 200 0 min 0,0 UV-I 0 W/m 9,8 C 7,4 C 27,4 km/h (4 Bft)
25.10.2022 04:51 11,7 C 11,1 C 89 % 1015,8 hPa 0,0 l/m 15,6 km/h (3 Bft) S-SW 209 0 min 0,0 UV-I 0 W/m 9,9 C 7,0 C 27,4 km/h (4 Bft)
25.10.2022 04:54 11,7 C 11,1 C 89 % 1015,9 hPa 0,0 l/m 16,4 km/h (3 Bft) S-SW 198 0 min 0,0 UV-I 0 W/m 9,9 C 6,7 C 27,4 km/h (4 Bft)
25.10.2022 04:57 11,7 C 11,1 C 89 % 1015,8 hPa 0,0 l/m 19,4 km/h (3 Bft) S-SW 202 0 min 0,0 UV-I 0 W/m 9,9 C 5,7 C 30,6 km/h (5 Bft)
25.10.2022 05:00 11,7 C 11,1 C 89 % 1015,9 hPa 0,0 l/m 12,4 km/h (3 Bft) SW 221 0 min 0,0 UV-I 0 W/m 9,9 C 8,3 C 20,9 km/h (4 Bft)
25.10.2022 05:03 11,7 C 11,1 C 89 % 1016,1 hPa 0,0 l/m 13,4 km/h (3 Bft) S-SW 194 0 min 0,0 UV-I 0 W/m 9,9 C 7,8 C 22,5 km/h (4 Bft)
25.10.2022 05:06 11,7 C 11,1 C 89 % 1015,9 hPa 0,0 l/m 15,8 km/h (3 Bft) S 173 0 min 0,0 UV-I 0 W/m 9,9 C 6,9 C 24,1 km/h (4 Bft)
25.10.2022 05:09 11,7 C 11,1 C 89 % 1016,0 hPa 0,0 l/m 13,6 km/h (3 Bft) S 188 0 min 0,0 UV-I 0 W/m 9,9 C 7,8 C 20,9 km/h (4 Bft)
25.10.2022 05:12 11,7 C 11,1 C 89 % 1016,0 hPa 0,0 l/m 14,3 km/h (3 Bft) S 172 0 min 0,0 UV-I 0 W/m 9,9 C 7,5 C 24,1 km/h (4 Bft)
25.10.2022 05:15 11,6 C 11,1 C 89 % 1016,0 hPa 0,0 l/m 13,3 km/h (3 Bft) S 171 0 min 0,0 UV-I 0 W/m 9,8 C 7,8 C 24,1 km/h (4 Bft)
25.10.2022 05:18 11,6 C 11,1 C 89 % 1016,0 hPa 0,0 l/m 15,0 km/h (3 Bft) S-SW 203 0 min 0,0 UV-I 0 W/m 9,8 C 7,1 C 27,4 km/h (4 Bft)
25.10.2022 05:21 11,6 C 11,1 C 89 % 1016,1 hPa 0,0 l/m 14,6 km/h (3 Bft) S-SO 164 0 min 0,0 UV-I 0 W/m 9,8 C 7,2 C 25,7 km/h (4 Bft)
25.10.2022 05:24 11,6 C 11,1 C 89 % 1016,1 hPa 0,0 l/m 16,2 km/h (3 Bft) S 178 0 min 0,0 UV-I 0 W/m 9,8 C 6,6 C 24,1 km/h (4 Bft)
25.10.2022 05:27 11,6 C 11,1 C 89 % 1016,1 hPa 0,0 l/m 15,1 km/h (3 Bft) S-SW 207 0 min 0,0 UV-I 0 W/m 9,8 C 7,0 C 30,6 km/h (5 Bft)
25.10.2022 05:30 11,6 C 11,1 C 89 % 1016,2 hPa 0,0 l/m 13,9 km/h (3 Bft) S-SW 196 0 min 0,0 UV-I 0 W/m 9,8 C 7,5 C 20,9 km/h (4 Bft)
25.10.2022 05:33 11,6 C 11,1 C 89 % 1016,2 hPa 0,0 l/m 11,3 km/h (2 Bft) S-SO 166 0 min 0,0 UV-I 0 W/m 9,8 C 8,7 C 22,5 km/h (4 Bft)
25.10.2022 05:36 11,6 C 11,1 C 89 % 1016,2 hPa 0,0 l/m 13,1 km/h (3 Bft) S-SW 194 0 min 0,0 UV-I 0 W/m 9,8 C 7,9 C 19,3 km/h (3 Bft)
25.10.2022 05:39 11,5 C 11,1 C 89 % 1016,2 hPa 0,0 l/m 12,5 km/h (3 Bft) S-SO 168 0 min 0,0 UV-I 0 W/m 9,8 C 8,0 C 27,4 km/h (4 Bft)
25.10.2022 05:42 11,5 C 11,1 C 89 % 1016,2 hPa 0,0 l/m 17,0 km/h (3 Bft) S-SW 201 0 min 0,0 UV-I 0 W/m 9,8 C 6,2 C 27,4 km/h (4 Bft)
25.10.2022 05:45 11,6 C 11,1 C 89 % 1016,3 hPa 0,0 l/m 14,8 km/h (3 Bft) S-SW 203 0 min 0,0 UV-I 0 W/m 9,8 C 7,2 C 24,1 km/h (4 Bft)
25.10.2022 05:48 11,6 C 11,1 C 89 % 1016,2 hPa 0,0 l/m 12,6 km/h (3 Bft) S-SW 194 0 min 0,0 UV-I 0 W/m 9,8 C 8,1 C 17,7 km/h (3 Bft)
25.10.2022 05:51 11,6 C 11,1 C 89 % 1016,2 hPa 0,0 l/m 14,0 km/h (3 Bft) S-SW 194 0 min 0,0 UV-I 0 W/m 9,8 C 7,5 C 22,5 km/h (4 Bft)
25.10.2022 05:54 11,6 C 11,1 C 89 % 1016,2 hPa 0,0 l/m 12,6 km/h (3 Bft) S 186 0 min 0,0 UV-I 0 W/m 9,8 C 8,1 C 20,9 km/h (4 Bft)
25.10.2022 05:57 11,6 C 11,1 C 89 % 1016,3 hPa 0,0 l/m 14,7 km/h (3 Bft) S 175 0 min 0,0 UV-I 0 W/m 9,8 C 7,2 C 22,5 km/h (4 Bft)
25.10.2022 06:00 11,5 C 11,1 C 89 % 1016,3 hPa 0,0 l/m 15,8 km/h (3 Bft) S 185 0 min 0,0 UV-I 0 W/m 9,8 C 6,6 C 30,6 km/h (5 Bft)
25.10.2022 06:03 11,5 C 11,1 C 89 % 1016,2 hPa 0,0 l/m 12,8 km/h (3 Bft) S 169 0 min 0,0 UV-I 0 W/m 9,8 C 7,9 C 22,5 km/h (4 Bft)
25.10.2022 06:06 11,5 C 11,1 C 89 % 1016,3 hPa 0,0 l/m 12,9 km/h (3 Bft) S 175 0 min 0,0 UV-I 0 W/m 9,8 C 7,8 C 22,5 km/h (4 Bft)
25.10.2022 06:09 11,4 C 11,1 C 89 % 1016,3 hPa 0,0 l/m 12,0 km/h (2 Bft) S-SW 213 0 min 0,0 UV-I 0 W/m 9,7 C 8,1 C 20,9 km/h (4 Bft)
25.10.2022 06:12 11,4 C 11,1 C 89 % 1016,3 hPa 0,0 l/m 16,0 km/h (3 Bft) S 185 0 min 0,0 UV-I 0 W/m 9,7 C 6,4 C 24,1 km/h (4 Bft)
25.10.2022 06:15 11,4 C 11,1 C 89 % 1016,4 hPa 0,0 l/m 14,4 km/h (3 Bft) S 190 0 min 0,0 UV-I 0 W/m 9,7 C 7,1 C 22,5 km/h (4 Bft)
25.10.2022 06:18 11,4 C 11,1 C 89 % 1016,3 hPa 0,0 l/m 13,8 km/h (3 Bft) S-SW 202 0 min 0,0 UV-I 0 W/m 9,7 C 7,3 C 22,5 km/h (4 Bft)
25.10.2022 06:21 11,4 C 11,1 C 89 % 1016,4 hPa 0,0 l/m 12,2 km/h (2 Bft) SW 218 0 min 0,0 UV-I 0 W/m 9,7 C 8,0 C 20,9 km/h (4 Bft)
25.10.2022 06:24 11,4 C 11,1 C 89 % 1016,3 hPa 0,0 l/m 14,7 km/h (3 Bft) S-SW 200 0 min 0,0 UV-I 0 W/m 9,7 C 6,9 C 24,1 km/h (4 Bft)
25.10.2022 06:27 11,4 C 11,1 C 89 % 1016,4 hPa 0,0 l/m 15,3 km/h (3 Bft) S 190 0 min 0,0 UV-I 0 W/m 9,7 C 6,7 C 24,1 km/h (4 Bft)
25.10.2022 06:30 11,4 C 11,1 C 89 % 1016,4 hPa 0,0 l/m 16,5 km/h (3 Bft) S 180 0 min 0,0 UV-I 0 W/m 9,7 C 6,3 C 24,1 km/h (4 Bft)
25.10.2022 06:33 11,4 C 11,1 C 89 % 1016,3 hPa 0,0 l/m 13,2 km/h (3 Bft) S-SW 196 0 min 0,0 UV-I 0 W/m 9,7 C 7,6 C 19,3 km/h (3 Bft)
25.10.2022 06:36 11,4 C 10,6 C 89 % 1016,4 hPa 0,0 l/m 16,6 km/h (3 Bft) S-SW 196 0 min 0,0 UV-I 0 W/m 9,7 C 6,2 C 29,0 km/h (5 Bft)
25.10.2022 06:39 11,3 C 10,6 C 89 % 1016,4 hPa 0,0 l/m 13,9 km/h (3 Bft) SO 136 0 min 0,0 UV-I 0 W/m 9,6 C 7,2 C 20,9 km/h (4 Bft)
25.10.2022 06:42 11,2 C 10,6 C 89 % 1016,4 hPa 0,0 l/m 13,0 km/h (3 Bft) S 188 0 min 0,0 UV-I 0 W/m 9,5 C 7,4 C 19,3 km/h (3 Bft)
25.10.2022 06:45 11,2 C 10,6 C 89 % 1016,5 hPa 0,0 l/m 13,8 km/h (3 Bft) S-SW 209 0 min 0,0 UV-I 0 W/m 9,5 C 7,1 C 20,9 km/h (4 Bft)
25.10.2022 06:48 11,2 C 10,6 C 89 % 1016,4 hPa 0,0 l/m 15,4 km/h (3 Bft) S 180 0 min 0,0 UV-I 0 W/m 9,5 C 6,4 C 24,1 km/h (4 Bft)
25.10.2022 06:51 11,1 C 10,0 C 89 % 1016,4 hPa 0,0 l/m 13,5 km/h (3 Bft) S 178 0 min 0,0 UV-I 0 W/m 9,4 C 7,1 C 20,9 km/h (4 Bft)
25.10.2022 06:54 11,1 C 10,0 C 89 % 1016,4 hPa 0,0 l/m 14,5 km/h (3 Bft) S 169 0 min 0,0 UV-I 0 W/m 9,4 C 6,7 C 27,4 km/h (4 Bft)
25.10.2022 06:57 11,0 C 10,0 C 89 % 1016,4 hPa 0,0 l/m 16,6 km/h (3 Bft) S 183 0 min 0,0 UV-I 0 W/m 9,3 C 5,7 C 27,4 km/h (4 Bft)
25.10.2022 07:00 11,0 C 10,0 C 89 % 1016,4 hPa 0,0 l/m 15,4 km/h (3 Bft) S-SO 150 0 min 0,0 UV-I 0 W/m 9,3 C 6,2 C 25,7 km/h (4 Bft)
25.10.2022 07:01 11,0 C 10,0 C 89 % 1016,5 hPa 0,0 l/m 16,1 km/h (3 Bft) S-SW 202 0 min 0,0 UV-I 0 W/m 9,3 C 5,9 C 20,9 km/h (4 Bft)
25.10.2022 07:09 11,0 C 10,0 C 89 % 1016,6 hPa 0,0 l/m 15,7 km/h (3 Bft) S-SW 194 0 min 0,0 UV-I 0 W/m 9,3 C 6,1 C 20,9 km/h (4 Bft)
25.10.2022 07:12 11,0 C 10,0 C 90 % 1016,5 hPa 0,0 l/m 18,8 km/h (3 Bft) S-SW 210 0 min 0,0 UV-I 0 W/m 9,4 C 5,0 C 37,0 km/h (5 Bft)
25.10.2022 07:15 11,0 C 10,0 C 89 % 1016,6 hPa 0,0 l/m 14,5 km/h (3 Bft) S 172 0 min 0,0 UV-I 0 W/m 9,3 C 6,5 C 20,9 km/h (4 Bft)
25.10.2022 07:18 11,1 C 10,6 C 90 % 1016,6 hPa 0,0 l/m 15,3 km/h (3 Bft) S-SW 193 0 min 0,0 UV-I 0 W/m 9,5 C 6,3 C 22,5 km/h (4 Bft)
25.10.2022 07:21 11,1 C 10,6 C 90 % 1016,6 hPa 0,0 l/m 13,8 km/h (3 Bft) S 188 0 min 0,0 UV-I 0 W/m 9,5 C 7,0 C 24,1 km/h (4 Bft)
25.10.2022 07:24 11,1 C 10,6 C 90 % 1016,6 hPa 0,0 l/m 13,6 km/h (3 Bft) S-SW 206 0 min 0,0 UV-I 0 W/m 9,5 C 7,1 C 27,4 km/h (4 Bft)
25.10.2022 07:27 11,2 C 10,6 C 90 % 1016,7 hPa 0,0 l/m 14,5 km/h (3 Bft) S-SW 204 0 min 0,0 UV-I 0 W/m 9,6 C 6,8 C 22,5 km/h (4 Bft)
25.10.2022 07:30 11,2 C 10,6 C 90 % 1016,7 hPa 0,0 l/m 14,2 km/h (3 Bft) S-SW 194 0 min 0,0 UV-I 0 W/m 9,6 C 6,9 C 22,5 km/h (4 Bft)
25.10.2022 07:33 11,2 C 10,6 C 90 % 1016,7 hPa 0,0 l/m 13,0 km/h (3 Bft) S 188 0 min 0,0 UV-I 0 W/m 9,6 C 7,4 C 22,5 km/h (4 Bft)
25.10.2022 07:36 11,2 C 10,6 C 90 % 1016,8 hPa 0,0 l/m 13,3 km/h (3 Bft) S-SW 192 0 min 0,0 UV-I 0 W/m 9,6 C 7,3 C 24,1 km/h (4 Bft)
25.10.2022 07:39 11,2 C 10,6 C 90 % 1016,7 hPa 0,0 l/m 15,0 km/h (3 Bft) S-SW 208 0 min 0,0 UV-I 0 W/m 9,6 C 6,6 C 24,1 km/h (4 Bft)
25.10.2022 07:42 11,2 C 10,6 C 90 % 1016,8 hPa 0,0 l/m 12,9 km/h (3 Bft) SW 215 0 min 0,0 UV-I 0 W/m 9,6 C 7,5 C 20,9 km/h (4 Bft)
25.10.2022 07:45 11,2 C 10,6 C 90 % 1016,8 hPa 0,0 l/m 13,9 km/h (3 Bft) S 188 0 min 0,0 UV-I 0 W/m 9,6 C 7,0 C 22,5 km/h (4 Bft)
25.10.2022 07:48 11,2 C 10,6 C 90 % 1016,8 hPa 0,0 l/m 12,3 km/h (3 Bft) S-SW 200 0 min 0,0 UV-I 0 W/m 9,6 C 7,8 C 19,3 km/h (3 Bft)
25.10.2022 07:51 11,2 C 10,6 C 90 % 1016,8 hPa 0,0 l/m 12,2 km/h (2 Bft) S-SW 199 0 min 0,0 UV-I 0 W/m 9,6 C 7,8 C 22,5 km/h (4 Bft)
25.10.2022 07:54 11,2 C 10,6 C 90 % 1016,8 hPa 0,0 l/m 11,9 km/h (2 Bft) S-SW 200 0 min 0,0 UV-I 0 W/m 9,6 C 7,9 C 24,1 km/h (4 Bft)
25.10.2022 07:57 11,2 C 10,6 C 90 % 1016,8 hPa 0,0 l/m 14,2 km/h (3 Bft) S 175 0 min 0,0 UV-I 0 W/m 9,6 C 6,9 C 24,1 km/h (4 Bft)
25.10.2022 08:00 11,2 C 10,6 C 90 % 1016,8 hPa 0,0 l/m 11,4 km/h (2 Bft) S 188 0 min 0,0 UV-I 0 W/m 9,6 C 8,2 C 19,3 km/h (3 Bft)
25.10.2022 08:03 11,2 C 10,6 C 90 % 1016,8 hPa 0,0 l/m 15,5 km/h (3 Bft) S 186 0 min 0,0 UV-I 0 W/m 9,6 C 6,4 C 29,0 km/h (5 Bft)
25.10.2022 08:06 11,2 C 10,6 C 90 % 1016,8 hPa 0,0 l/m 13,0 km/h (3 Bft) S 173 0 min 0,0 UV-I 0 W/m 9,6 C 7,4 C 25,7 km/h (4 Bft)
25.10.2022 08:09 11,2 C 10,6 C 90 % 1016,9 hPa 0,0 l/m 12,2 km/h (2 Bft) S 190 0 min 0,0 UV-I 0 W/m 9,6 C 7,8 C 27,4 km/h (4 Bft)
25.10.2022 08:12 11,2 C 10,6 C 90 % 1017,0 hPa 0,0 l/m 14,7 km/h (3 Bft) S 182 0 min 0,0 UV-I 0 W/m 9,6 C 6,7 C 32,2 km/h (5 Bft)
25.10.2022 08:15 11,2 C 10,6 C 90 % 1016,9 hPa 0,0 l/m 13,5 km/h (3 Bft) S-SW 212 0 min 0,0 UV-I 0 W/m 9,6 C 7,2 C 17,7 km/h (3 Bft)
25.10.2022 08:18 11,2 C 10,6 C 90 % 1017,0 hPa 0,0 l/m 12,6 km/h (3 Bft) S 169 0 min 0,0 UV-I 0 W/m 9,6 C 7,6 C 17,7 km/h (3 Bft)
25.10.2022 08:21 11,2 C 10,6 C 90 % 1017,0 hPa 0,0 l/m 10,6 km/h (2 Bft) S 190 0 min 0,0 UV-I 0 W/m 9,6 C 8,6 C 19,3 km/h (3 Bft)
25.10.2022 08:24 11,2 C 10,6 C 90 % 1017,0 hPa 0,0 l/m 10,4 km/h (2 Bft) S 180 0 min 0,0 UV-I 0 W/m 9,6 C 8,7 C 16,1 km/h (3 Bft)
25.10.2022 08:27 11,2 C 10,6 C 90 % 1017,0 hPa 0,0 l/m 13,3 km/h (3 Bft) SW 223 0 min 0,0 UV-I 0 W/m 9,6 C 7,3 C 24,1 km/h (4 Bft)
25.10.2022 08:30 11,2 C 10,6 C 90 % 1017,1 hPa 0,0 l/m 12,2 km/h (2 Bft) S-SO 166 0 min 0,0 UV-I 3 W/m 9,6 C 7,8 C 22,5 km/h (4 Bft)
25.10.2022 08:33 11,2 C 10,6 C 90 % 1017,1 hPa 0,0 l/m 13,4 km/h (3 Bft) SW 214 0 min 0,0 UV-I 3 W/m 9,6 C 7,3 C 22,5 km/h (4 Bft)
25.10.2022 08:36 11,2 C 10,6 C 90 % 1017,1 hPa 0,0 l/m 9,6 km/h (2 Bft) SW 214 0 min 0,0 UV-I 3 W/m 9,6 C 9,1 C 16,1 km/h (3 Bft)
25.10.2022 08:39 11,2 C 10,6 C 90 % 1017,2 hPa 0,0 l/m 12,2 km/h (2 Bft) S 182 0 min 0,0 UV-I 3 W/m 9,6 C 7,8 C 19,3 km/h (3 Bft)
25.10.2022 08:42 11,2 C 10,6 C 90 % 1017,2 hPa 0,0 l/m 14,6 km/h (3 Bft) S 189 0 min 0,0 UV-I 9 W/m 9,6 C 6,7 C 24,1 km/h (4 Bft)
25.10.2022 08:45 11,2 C 10,6 C 90 % 1017,3 hPa 0,0 l/m 11,7 km/h (2 Bft) S 190 0 min 0,0 UV-I 10 W/m 9,6 C 8,0 C 17,7 km/h (3 Bft)
25.10.2022 08:48 11,2 C 10,6 C 90 % 1017,3 hPa 0,0 l/m 10,0 km/h (2 Bft) S 175 0 min 0,0 UV-I 9 W/m 9,6 C 8,9 C 16,1 km/h (3 Bft)
25.10.2022 08:51 11,2 C 10,6 C 90 % 1017,4 hPa 0,0 l/m 10,8 km/h (2 Bft) SW 216 0 min 0,0 UV-I 14 W/m 9,6 C 8,5 C 17,7 km/h (3 Bft)
25.10.2022 08:54 11,2 C 11,1 C 90 % 1017,4 hPa 0,0 l/m 13,8 km/h (3 Bft) S-SW 197 0 min 0,0 UV-I 18 W/m 9,6 C 7,1 C 22,5 km/h (4 Bft)
25.10.2022 08:57 11,2 C 11,1 C 90 % 1017,5 hPa 0,0 l/m 13,0 km/h (3 Bft) S-SW 194 0 min 0,0 UV-I 18 W/m 9,6 C 7,4 C 24,1 km/h (4 Bft)
25.10.2022 09:00 11,2 C 11,1 C 90 % 1017,5 hPa 0,0 l/m 14,3 km/h (3 Bft) S-SW 194 0 min 0,0 UV-I 21 W/m 9,6 C 6,9 C 22,5 km/h (4 Bft)
25.10.2022 09:03 11,2 C 11,1 C 90 % 1017,4 hPa 0,0 l/m 12,2 km/h (2 Bft) SW 222 0 min 0,0 UV-I 22 W/m 9,6 C 7,8 C 22,5 km/h (4 Bft)
25.10.2022 09:06 11,3 C 11,1 C 90 % 1017,5 hPa 0,0 l/m 13,2 km/h (3 Bft) SW 215 0 min 0,0 UV-I 20 W/m 9,7 C 7,5 C 19,3 km/h (3 Bft)
25.10.2022 09:09 11,3 C 11,1 C 89 % 1017,6 hPa 0,0 l/m 13,7 km/h (3 Bft) S 181 0 min 0,0 UV-I 17 W/m 9,6 C 7,2 C 20,9 km/h (4 Bft)
25.10.2022 09:12 11,3 C 11,1 C 89 % 1017,5 hPa 0,0 l/m 13,3 km/h (3 Bft) S-SW 192 0 min 0,0 UV-I 25 W/m 9,6 C 7,4 C 19,3 km/h (3 Bft)
25.10.2022 09:15 11,3 C 11,1 C 89 % 1017,6 hPa 0,0 l/m 12,8 km/h (3 Bft) S 170 0 min 0,0 UV-I 36 W/m 9,6 C 7,6 C 22,5 km/h (4 Bft)
25.10.2022 09:18 11,3 C 11,1 C 89 % 1017,5 hPa 0,0 l/m 13,3 km/h (3 Bft) S-SW 196 0 min 0,0 UV-I 32 W/m 9,6 C 7,4 C 20,9 km/h (4 Bft)
25.10.2022 09:21 11,3 C 11,1 C 89 % 1017,8 hPa 0,0 l/m 13,7 km/h (3 Bft) S-SO 163 0 min 0,0 UV-I 30 W/m 9,6 C 7,2 C 22,5 km/h (4 Bft)
25.10.2022 09:24 11,3 C 11,1 C 89 % 1017,7 hPa 0,0 l/m 15,0 km/h (3 Bft) S 182 0 min 0,0 UV-I 27 W/m 9,6 C 6,7 C 22,5 km/h (4 Bft)
25.10.2022 09:27 11,3 C 11,1 C 89 % 1017,6 hPa 0,0 l/m 9,9 km/h (2 Bft) S-SW 204 0 min 0,0 UV-I 28 W/m 9,6 C 9,1 C 14,5 km/h (3 Bft)
25.10.2022 09:30 11,3 C 11,1 C 89 % 1017,7 hPa 0,0 l/m 13,8 km/h (3 Bft) S-SW 192 0 min 0,0 UV-I 42 W/m 9,6 C 7,2 C 22,5 km/h (4 Bft)
25.10.2022 09:33 11,3 C 11,1 C 89 % 1017,8 hPa 0,0 l/m 13,1 km/h (3 Bft) SW 223 0 min 0,0 UV-I 46 W/m 9,6 C 7,5 C 19,3 km/h (3 Bft)
25.10.2022 09:36 11,3 C 11,1 C 89 % 1017,8 hPa 0,0 l/m 13,0 km/h (3 Bft) S-SW 209 0 min 0,0 UV-I 61 W/m 9,6 C 7,6 C 20,9 km/h (4 Bft)
25.10.2022 09:39 11,4 C 11,1 C 89 % 1017,8 hPa 0,0 l/m 12,0 km/h (2 Bft) S 188 0 min 0,0 UV-I 60 W/m 9,7 C 8,1 C 19,3 km/h (3 Bft)
25.10.2022 09:42 11,4 C 11,1 C 89 % 1017,8 hPa 0,0 l/m 12,0 km/h (2 Bft) S 184 0 min 0,0 UV-I 43 W/m 9,7 C 8,1 C 19,3 km/h (3 Bft)
25.10.2022 09:45 11,4 C 11,1 C 89 % 1017,8 hPa 0,0 l/m 10,1 km/h (2 Bft) S-SW 196 0 min 0,0 UV-I 53 W/m 9,7 C 9,1 C 17,7 km/h (3 Bft)
25.10.2022 09:48 11,4 C 11,7 C 89 % 1017,8 hPa 0,0 l/m 12,3 km/h (3 Bft) S-SW 202 0 min 0,0 UV-I 59 W/m 9,7 C 8,0 C 22,5 km/h (4 Bft)
25.10.2022 09:51 11,5 C 11,7 C 88 % 1017,8 hPa 0,0 l/m 13,3 km/h (3 Bft) S-SW 211 0 min 0,0 UV-I 59 W/m 9,6 C 7,7 C 20,9 km/h (4 Bft)
25.10.2022 09:54 11,4 C 11,7 C 88 % 1017,8 hPa 0,0 l/m 11,1 km/h (2 Bft) S-SW 194 0 min 0,0 UV-I 61 W/m 9,5 C 8,6 C 17,7 km/h (3 Bft)
25.10.2022 09:57 11,5 C 11,7 C 88 % 1017,8 hPa 0,0 l/m 9,5 km/h (2 Bft) S-SW 203 0 min 0,0 UV-I 70 W/m 9,6 C 9,5 C 17,7 km/h (3 Bft)
25.10.2022 10:00 11,5 C 11,7 C 88 % 1017,9 hPa 0,0 l/m 12,3 km/h (3 Bft) W-SW 242 0 min 0,0 UV-I 66 W/m 9,6 C 8,1 C 19,3 km/h (3 Bft)
25.10.2022 10:03 11,5 C 11,7 C 88 % 1017,9 hPa 0,0 l/m 12,5 km/h (3 Bft) SW 234 0 min 0,0 UV-I 47 W/m 9,6 C 8,0 C 25,7 km/h (4 Bft)
25.10.2022 10:07 11,4 C 11,1 C 88 % 1017,9 hPa 0,0 l/m 10,7 km/h (2 Bft) S 183 0 min 0,0 UV-I 34 W/m 9,5 C 8,8 C 19,3 km/h (3 Bft)
25.10.2022 10:09 11,4 C 11,1 C 88 % 1017,9 hPa 0,0 l/m 10,7 km/h (2 Bft) S 189 0 min 0,0 UV-I 33 W/m 9,5 C 8,8 C 14,5 km/h (3 Bft)
25.10.2022 10:12 11,3 C 10,6 C 89 % 1017,9 hPa 0,0 l/m 9,2 km/h (2 Bft) S-SW 205 0 min 0,0 UV-I 38 W/m 9,6 C 9,5 C 14,5 km/h (3 Bft)
25.10.2022 10:15 11,3 C 11,1 C 89 % 1017,9 hPa 0,0 l/m 12,6 km/h (3 Bft) S-SW 198 0 min 0,0 UV-I 52 W/m 9,6 C 7,7 C 19,3 km/h (3 Bft)
25.10.2022 10:18 11,3 C 11,1 C 89 % 1017,9 hPa 0,0 l/m 14,1 km/h (3 Bft) S 186 0 min 0,2 UV-I 76 W/m 9,6 C 7,1 C 25,7 km/h (4 Bft)
25.10.2022 10:21 11,3 C 11,1 C 89 % 1018,0 hPa 0,0 l/m 12,4 km/h (3 Bft) S 189 0 min 0,3 UV-I 68 W/m 9,6 C 7,8 C 19,3 km/h (3 Bft)
25.10.2022 10:24 11,3 C 11,1 C 89 % 1017,9 hPa 0,0 l/m 11,5 km/h (2 Bft) S-SW 198 0 min 0,0 UV-I 50 W/m 9,6 C 8,3 C 17,7 km/h (3 Bft)
25.10.2022 10:27 11,3 C 11,1 C 89 % 1018,0 hPa 0,0 l/m 12,0 km/h (2 Bft) S-SO 165 0 min 0,0 UV-I 47 W/m 9,6 C 8,0 C 20,9 km/h (4 Bft)
25.10.2022 10:30 11,3 C 11,1 C 89 % 1018,0 hPa 0,0 l/m 11,6 km/h (2 Bft) S-SO 153 0 min 0,0 UV-I 42 W/m 9,6 C 8,2 C 17,7 km/h (3 Bft)
25.10.2022 10:33 11,3 C 11,1 C 89 % 1018,0 hPa 0,0 l/m 15,3 km/h (3 Bft) S 179 0 min 0,0 UV-I 54 W/m 9,6 C 6,6 C 25,7 km/h (4 Bft)
25.10.2022 10:36 11,3 C 11,1 C 89 % 1017,9 hPa 0,0 l/m 12,5 km/h (3 Bft) S 186 0 min 0,2 UV-I 65 W/m 9,6 C 7,8 C 17,7 km/h (3 Bft)
25.10.2022 10:39 11,4 C 11,7 C 89 % 1018,0 hPa 0,0 l/m 12,9 km/h (3 Bft) S-SW 207 0 min 0,5 UV-I 95 W/m 9,7 C 7,7 C 19,3 km/h (3 Bft)
25.10.2022 10:42 11,4 C 11,7 C 89 % 1018,0 hPa 0,0 l/m 11,2 km/h (2 Bft) S 190 0 min 0,5 UV-I 98 W/m 9,7 C 8,5 C 17,7 km/h (3 Bft)
25.10.2022 10:45 11,5 C 11,7 C 89 % 1018,0 hPa 0,0 l/m 12,0 km/h (2 Bft) S 180 0 min 0,6 UV-I 109 W/m 9,8 C 8,2 C 19,3 km/h (3 Bft)
25.10.2022 10:48 11,5 C 11,7 C 88 % 1017,9 hPa 0,0 l/m 13,7 km/h (3 Bft) S 179 0 min 0,6 UV-I 120 W/m 9,6 C 7,5 C 19,3 km/h (3 Bft)
25.10.2022 10:51 11,7 C 12,2 C 88 % 1018,0 hPa 0,0 l/m 11,5 km/h (2 Bft) S 180 0 min 0,6 UV-I 137 W/m 9,8 C 8,7 C 19,3 km/h (3 Bft)
25.10.2022 10:54 11,7 C 12,2 C 88 % 1017,9 hPa 0,0 l/m 12,7 km/h (3 Bft) SW 219 0 min 0,6 UV-I 114 W/m 9,8 C 8,2 C 19,3 km/h (3 Bft)
25.10.2022 10:57 11,7 C 12,2 C 88 % 1018,0 hPa 0,0 l/m 11,6 km/h (2 Bft) S-SW 203 0 min 0,5 UV-I 107 W/m 9,8 C 8,7 C 20,9 km/h (4 Bft)
25.10.2022 11:00 11,7 C 12,2 C 88 % 1018,0 hPa 0,0 l/m 12,2 km/h (2 Bft) SW 217 0 min 0,6 UV-I 120 W/m 9,8 C 8,4 C 22,5 km/h (4 Bft)
25.10.2022 11:03 11,8 C 12,2 C 88 % 1018,1 hPa 0,0 l/m 12,0 km/h (2 Bft) S 189 0 min 0,3 UV-I 101 W/m 9,9 C 8,6 C 16,1 km/h (3 Bft)
25.10.2022 11:06 11,8 C 12,2 C 88 % 1018,2 hPa 0,0 l/m 9,1 km/h (2 Bft) S 181 0 min 0,0 UV-I 83 W/m 9,9 C 10,1 C 12,9 km/h (3 Bft)
25.10.2022 11:09 11,8 C 12,2 C 88 % 1018,2 hPa 0,0 l/m 10,1 km/h (2 Bft) SW 233 0 min 0,5 UV-I 109 W/m 9,9 C 9,5 C 17,7 km/h (3 Bft)
25.10.2022 11:12 11,8 C 12,8 C 87 % 1018,3 hPa 0,0 l/m 14,4 km/h (3 Bft) SW 219 0 min 0,8 UV-I 150 W/m 9,7 C 7,6 C 24,1 km/h (4 Bft)
25.10.2022 11:15 11,9 C 12,8 C 87 % 1018,1 hPa 0,0 l/m 15,2 km/h (3 Bft) S 186 0 min 0,9 UV-I 168 W/m 9,8 C 7,4 C 22,5 km/h (4 Bft)
25.10.2022 11:18 12,0 C 12,8 C 87 % 1018,4 hPa 0,0 l/m 13,3 km/h (3 Bft) S-SW 195 0 min 0,8 UV-I 147 W/m 9,9 C 8,2 C 22,5 km/h (4 Bft)
25.10.2022 11:21 11,9 C 12,2 C 86 % 1018,5 hPa 0,0 l/m 15,1 km/h (3 Bft) S-SO 160 0 min 0,5 UV-I 98 W/m 9,6 C 7,4 C 27,4 km/h (4 Bft)
25.10.2022 11:24 11,8 C 11,7 C 87 % 1018,4 hPa 0,0 l/m 12,4 km/h (3 Bft) S-SW 196 0 min 0,0 UV-I 84 W/m 9,7 C 8,4 C 19,3 km/h (3 Bft)
25.10.2022 11:27 11,7 C 11,7 C 87 % 1018,4 hPa 0,0 l/m 12,9 km/h (3 Bft) S-SW 206 0 min 0,6 UV-I 121 W/m 9,6 C 8,1 C 22,5 km/h (4 Bft)
25.10.2022 11:30 11,7 C 11,7 C 88 % 1018,5 hPa 0,0 l/m 10,3 km/h (2 Bft) S 189 0 min 0,7 UV-I 126 W/m 9,8 C 9,3 C 20,9 km/h (4 Bft)
25.10.2022 11:33 11,7 C 12,2 C 88 % 1018,5 hPa 0,0 l/m 14,3 km/h (3 Bft) S-SW 211 0 min 0,9 UV-I 157 W/m 9,8 C 7,5 C 20,9 km/h (4 Bft)
25.10.2022 11:36 11,7 C 12,2 C 88 % 1018,4 hPa 0,0 l/m 14,5 km/h (3 Bft) S-SW 193 0 min 1,1 UV-I 170 W/m 9,8 C 7,4 C 22,5 km/h (4 Bft)
25.10.2022 11:39 11,8 C 13,3 C 88 % 1018,3 hPa 0,0 l/m 11,7 km/h (2 Bft) S 188 0 min 1,1 UV-I 197 W/m 9,9 C 8,7 C 16,1 km/h (3 Bft)
25.10.2022 11:42 11,9 C 12,8 C 88 % 1018,3 hPa 0,0 l/m 10,7 km/h (2 Bft) S-SW 209 0 min 0,9 UV-I 175 W/m 10,0 C 9,3 C 16,1 km/h (3 Bft)
25.10.2022 11:45 12,0 C 12,8 C 88 % 1018,4 hPa 0,0 l/m 12,2 km/h (2 Bft) S-SW 202 0 min 0,8 UV-I 156 W/m 10,1 C 8,7 C 20,9 km/h (4 Bft)
25.10.2022 11:48 12,0 C 12,8 C 87 % 1018,4 hPa 0,0 l/m 12,0 km/h (2 Bft) SW 228 0 min 0,9 UV-I 152 W/m 9,9 C 8,8 C 17,7 km/h (3 Bft)
25.10.2022 11:51 12,0 C 12,8 C 87 % 1018,4 hPa 0,0 l/m 15,9 km/h (3 Bft) SW 217 0 min 0,9 UV-I 148 W/m 9,9 C 7,2 C 22,5 km/h (4 Bft)
25.10.2022 11:54 12,0 C 12,8 C 86 % 1018,4 hPa 0,0 l/m 17,5 km/h (3 Bft) S 188 0 min 1,0 UV-I 171 W/m 9,7 C 6,7 C 27,4 km/h (4 Bft)
25.10.2022 11:57 12,1 C 12,8 C 86 % 1018,4 hPa 0,0 l/m 15,9 km/h (3 Bft) SW 220 0 min 1,0 UV-I 182 W/m 9,8 C 7,3 C 20,9 km/h (4 Bft)
25.10.2022 12:00 12,1 C 12,8 C 86 % 1018,6 hPa 0,0 l/m 16,7 km/h (3 Bft) S 179 0 min 0,9 UV-I 167 W/m 9,8 C 7,1 C 25,7 km/h (4 Bft)
25.10.2022 12:03 12,1 C 12,8 C 85 % 1018,7 hPa 0,0 l/m 14,8 km/h (3 Bft) S-SW 196 0 min 0,9 UV-I 159 W/m 9,7 C 7,8 C 24,1 km/h (4 Bft)
25.10.2022 12:06 12,1 C 12,8 C 84 % 1018,7 hPa 0,0 l/m 16,2 km/h (3 Bft) S 174 0 min 0,8 UV-I 142 W/m 9,5 C 7,2 C 30,6 km/h (5 Bft)
25.10.2022 12:09 12,2 C 12,8 C 84 % 1018,6 hPa 0,0 l/m 15,9 km/h (3 Bft) S-SW 209 0 min 0,9 UV-I 158 W/m 9,6 C 7,5 C 22,5 km/h (4 Bft)
25.10.2022 12:12 12,1 C 12,8 C 83 % 1018,6 hPa 0,0 l/m 17,1 km/h (3 Bft) S 184 0 min 0,9 UV-I 159 W/m 9,3 C 6,9 C 25,7 km/h (4 Bft)
25.10.2022 12:15 12,2 C 12,8 C 82 % 1018,6 hPa 0,0 l/m 14,1 km/h (3 Bft) S-SO 163 0 min 0,9 UV-I 153 W/m 9,2 C 8,2 C 25,7 km/h (4 Bft)
25.10.2022 12:18 12,2 C 12,8 C 82 % 1018,7 hPa 0,0 l/m 14,2 km/h (3 Bft) S-SW 197 0 min 0,9 UV-I 145 W/m 9,2 C 8,1 C 25,7 km/h (4 Bft)
25.10.2022 12:21 12,3 C 12,8 C 82 % 1018,6 hPa 0,0 l/m 11,4 km/h (2 Bft) S-SW 203 0 min 0,9 UV-I 148 W/m 9,3 C 9,4 C 17,7 km/h (3 Bft)
25.10.2022 12:24 12,3 C 13,3 C 82 % 1018,7 hPa 0,0 l/m 12,7 km/h (3 Bft) SW 219 0 min 1,0 UV-I 169 W/m 9,3 C 8,9 C 17,7 km/h (3 Bft)
25.10.2022 12:27 12,3 C 13,3 C 83 % 1018,7 hPa 0,0 l/m 13,1 km/h (3 Bft) S-SW 211 0 min 1,0 UV-I 156 W/m 9,5 C 8,7 C 25,7 km/h (4 Bft)
25.10.2022 12:30 12,3 C 12,8 C 83 % 1018,9 hPa 0,0 l/m 15,6 km/h (3 Bft) S 188 0 min 0,9 UV-I 129 W/m 9,5 C 7,7 C 20,9 km/h (4 Bft)
25.10.2022 12:33 12,3 C 12,8 C 83 % 1018,7 hPa 0,0 l/m 10,7 km/h (2 Bft) S-SW 205 0 min 0,8 UV-I 120 W/m 9,5 C 9,8 C 16,1 km/h (3 Bft)
25.10.2022 12:36 12,2 C 12,2 C 83 % 1018,9 hPa 0,0 l/m 12,5 km/h (3 Bft) S-SW 204 0 min 0,7 UV-I 99 W/m 9,4 C 8,8 C 19,3 km/h (3 Bft)
25.10.2022 12:39 12,2 C 12,2 C 84 % 1018,9 hPa 0,0 l/m 10,6 km/h (2 Bft) S 184 0 min 0,6 UV-I 87 W/m 9,6 C 9,7 C 16,1 km/h (3 Bft)
25.10.2022 12:42 12,1 C 12,2 C 84 % 1018,9 hPa 0,0 l/m 12,0 km/h (2 Bft) S-SW 203 0 min 0,5 UV-I 82 W/m 9,5 C 8,9 C 17,7 km/h (3 Bft)
25.10.2022 12:45 12,2 C 12,2 C 84 % 1018,9 hPa 0,0 l/m 13,2 km/h (3 Bft) S-SW 200 0 min 0,5 UV-I 101 W/m 9,6 C 8,5 C 22,5 km/h (4 Bft)
25.10.2022 12:48 12,1 C 12,8 C 84 % 1018,8 hPa 0,0 l/m 12,0 km/h (2 Bft) S-SW 211 0 min 0,6 UV-I 114 W/m 9,5 C 8,9 C 17,7 km/h (3 Bft)
25.10.2022 12:51 12,2 C 12,8 C 84 % 1018,9 hPa 0,0 l/m 15,8 km/h (3 Bft) S-SW 205 0 min 0,8 UV-I 177 W/m 9,6 C 7,5 C 24,1 km/h (4 Bft)
25.10.2022 12:54 12,3 C 13,9 C 84 % 1018,8 hPa 0,0 l/m 12,3 km/h (3 Bft) S-SW 207 0 min 1,2 UV-I 259 W/m 9,7 C 9,0 C 17,7 km/h (3 Bft)
25.10.2022 12:57 12,6 C 14,4 C 84 % 1018,7 hPa 0,0 l/m 10,6 km/h (2 Bft) W-SW 240 0 min 1,3 UV-I 211 W/m 10,0 C 10,2 C 17,7 km/h (3 Bft)
25.10.2022 13:00 12,7 C 15,0 C 82 % 1018,7 hPa 0,0 l/m 18,2 km/h (3 Bft) S-SW 202 0 min 1,5 UV-I 213 W/m 9,7 C 7,3 C 27,4 km/h (4 Bft)
25.10.2022 13:03 12,7 C 14,4 C 81 % 1018,8 hPa 0,0 l/m 17,4 km/h (3 Bft) SW 217 0 min 1,3 UV-I 253 W/m 9,5 C 7,6 C 25,7 km/h (4 Bft)
25.10.2022 13:06 12,8 C 15,6 C 82 % 1018,7 hPa 0,0 l/m 13,8 km/h (3 Bft) S-SW 210 3 min 1,5 UV-I 314 W/m 9,8 C 9,0 C 22,5 km/h (4 Bft)
25.10.2022 13:09 13,1 C 17,2 C 80 % 1018,7 hPa 0,0 l/m 17,9 km/h (3 Bft) S-SW 196 0 min 1,8 UV-I 297 W/m 9,7 C 7,9 C 25,7 km/h (4 Bft)
25.10.2022 13:12 13,2 C 17,2 C 79 % 1018,7 hPa 0,0 l/m 16,4 km/h (3 Bft) S-SW 197 0 min 1,9 UV-I 291 W/m 9,6 C 8,5 C 24,1 km/h (4 Bft)
25.10.2022 13:15 13,3 C 17,2 C 79 % 1018,7 hPa 0,0 l/m 12,7 km/h (3 Bft) SW 216 3 min 1,7 UV-I 321 W/m 9,7 C 10,0 C 19,3 km/h (3 Bft)
25.10.2022 13:18 13,2 C 15,6 C 78 % 1018,8 hPa 0,0 l/m 11,4 km/h (2 Bft) SW 219 0 min 1,3 UV-I 220 W/m 9,4 C 10,5 C 19,3 km/h (3 Bft)
25.10.2022 13:21 13,1 C 15,6 C 79 % 1018,8 hPa 0,0 l/m 13,7 km/h (3 Bft) S-SW 194 0 min 1,6 UV-I 274 W/m 9,5 C 9,4 C 19,3 km/h (3 Bft)
25.10.2022 13:24 13,1 C 15,0 C 79 % 1018,8 hPa 0,0 l/m 14,9 km/h (3 Bft) SW 221 0 min 1,6 UV-I 257 W/m 9,5 C 8,9 C 19,3 km/h (3 Bft)
25.10.2022 13:27 13,0 C 15,6 C 79 % 1018,7 hPa 0,0 l/m 11,4 km/h (2 Bft) S-SW 206 0 min 1,7 UV-I 215 W/m 9,4 C 10,2 C 16,1 km/h (3 Bft)
25.10.2022 13:30 13,1 C 16,1 C 79 % 1018,8 hPa 0,0 l/m 11,4 km/h (2 Bft) SW 225 0 min 1,6 UV-I 237 W/m 9,5 C 10,4 C 17,7 km/h (3 Bft)
25.10.2022 13:33 13,1 C 16,1 C 79 % 1018,8 hPa 0,0 l/m 13,5 km/h (3 Bft) S 177 0 min 1,6 UV-I 286 W/m 9,5 C 9,5 C 20,9 km/h (4 Bft)
25.10.2022 13:36 13,1 C 15,0 C 79 % 1018,7 hPa 0,0 l/m 10,3 km/h (2 Bft) S 182 0 min 1,3 UV-I 187 W/m 9,5 C 10,9 C 19,3 km/h (3 Bft)
25.10.2022 13:39 12,9 C 14,4 C 79 % 1018,8 hPa 0,0 l/m 12,9 km/h (3 Bft) SW 214 0 min 1,3 UV-I 179 W/m 9,3 C 9,5 C 19,3 km/h (3 Bft)
25.10.2022 13:42 12,8 C 13,9 C 80 % 1018,8 hPa 0,0 l/m 13,4 km/h (3 Bft) SW 222 0 min 1,2 UV-I 172 W/m 9,4 C 9,1 C 17,7 km/h (3 Bft)
25.10.2022 13:45 12,9 C 14,4 C 81 % 1018,8 hPa 0,0 l/m 9,8 km/h (2 Bft) S 184 0 min 1,3 UV-I 191 W/m 9,7 C 10,9 C 17,7 km/h (3 Bft)
25.10.2022 13:48 13,0 C 16,1 C 80 % 1018,7 hPa 0,0 l/m 11,9 km/h (2 Bft) S 186 0 min 1,5 UV-I 242 W/m 9,6 C 10,0 C 17,7 km/h (3 Bft)
25.10.2022 13:51 12,9 C 15,0 C 80 % 1018,8 hPa 0,0 l/m 14,2 km/h (3 Bft) S 182 0 min 1,3 UV-I 206 W/m 9,5 C 8,9 C 22,5 km/h (4 Bft)
25.10.2022 13:54 12,9 C 13,9 C 80 % 1018,6 hPa 0,0 l/m 12,8 km/h (3 Bft) S-SO 157 0 min 1,1 UV-I 155 W/m 9,5 C 9,5 C 19,3 km/h (3 Bft)
25.10.2022 13:57 12,8 C 13,9 C 79 % 1018,8 hPa 0,0 l/m 15,0 km/h (3 Bft) SW 226 0 min 1,1 UV-I 173 W/m 9,2 C 8,5 C 22,5 km/h (4 Bft)
25.10.2022 14:00 13,1 C 16,7 C 80 % 1018,6 hPa 0,0 l/m 14,6 km/h (3 Bft) S 179 0 min 1,8 UV-I 265 W/m 9,7 C 9,0 C 24,1 km/h (4 Bft)
25.10.2022 14:03 13,2 C 16,7 C 79 % 1018,8 hPa 0,0 l/m 11,3 km/h (2 Bft) S-SW 198 0 min 1,6 UV-I 252 W/m 9,6 C 10,5 C 17,7 km/h (3 Bft)
25.10.2022 14:06 13,2 C 15,6 C 79 % 1018,7 hPa 0,0 l/m 11,9 km/h (2 Bft) S-SW 200 0 min 1,5 UV-I 281 W/m 9,6 C 10,2 C 22,5 km/h (4 Bft)
25.10.2022 14:09 13,3 C 16,1 C 78 % 1018,6 hPa 0,0 l/m 13,4 km/h (3 Bft) W-SW 246 0 min 1,6 UV-I 241 W/m 9,5 C 9,7 C 20,9 km/h (4 Bft)
25.10.2022 14:12 13,6 C 17,8 C 79 % 1018,5 hPa 0,0 l/m 8,8 km/h (2 Bft) W-SW 242 3 min 1,7 UV-I 414 W/m 10,0 C 12,2 C 19,3 km/h (3 Bft)
25.10.2022 14:15 13,7 C 18,3 C 78 % 1018,5 hPa 0,0 l/m 10,0 km/h (2 Bft) S-SW 198 0 min 1,6 UV-I 209 W/m 9,9 C 11,7 C 16,1 km/h (3 Bft)
25.10.2022 14:18 14,0 C 20,6 C 78 % 1018,5 hPa 0,0 l/m 8,1 km/h (2 Bft) S-SW 200 0 min 1,9 UV-I 267 W/m 10,2 C 13,0 C 16,1 km/h (3 Bft)
25.10.2022 14:21 13,8 C 17,8 C 76 % 1018,5 hPa 0,0 l/m 11,5 km/h (2 Bft) S-SW 207 0 min 1,5 UV-I 271 W/m 9,6 C 11,1 C 17,7 km/h (3 Bft)
25.10.2022 14:24 13,6 C 15,6 C 77 % 1018,4 hPa 0,0 l/m 10,2 km/h (2 Bft) S-SO 161 0 min 1,3 UV-I 175 W/m 9,6 C 11,5 C 14,5 km/h (3 Bft)
25.10.2022 14:27 13,4 C 14,4 C 77 % 1018,6 hPa 0,0 l/m 12,7 km/h (3 Bft) S 173 0 min 1,1 UV-I 112 W/m 9,5 C 10,1 C 19,3 km/h (3 Bft)
25.10.2022 14:30 13,4 C 15,6 C 77 % 1018,6 hPa 0,0 l/m 13,4 km/h (3 Bft) S-SO 150 0 min 1,6 UV-I 141 W/m 9,5 C 9,9 C 20,9 km/h (4 Bft)
25.10.2022 14:33 13,7 C 18,9 C 78 % 1018,6 hPa 0,0 l/m 13,3 km/h (3 Bft) S-SW 196 3 min 2,0 UV-I 433 W/m 9,9 C 10,2 C 19,3 km/h (3 Bft)
25.10.2022 14:36 13,7 C 18,3 C 78 % 1018,5 hPa 0,0 l/m 14,8 km/h (3 Bft) S-SW 204 3 min 1,8 UV-I 379 W/m 9,9 C 9,7 C 20,9 km/h (4 Bft)
25.10.2022 14:39 13,4 C 16,7 C 78 % 1018,6 hPa 0,0 l/m 14,5 km/h (3 Bft) S 180 0 min 1,6 UV-I 267 W/m 9,6 C 9,4 C 25,7 km/h (4 Bft)
25.10.2022 14:42 13,6 C 19,4 C 78 % 1018,6 hPa 0,0 l/m 14,1 km/h (3 Bft) S 184 3 min 1,9 UV-I 482 W/m 9,8 C 9,8 C 22,5 km/h (4 Bft)
25.10.2022 14:45 13,4 C 16,7 C 78 % 1018,5 hPa 0,0 l/m 12,1 km/h (2 Bft) S-SW 200 0 min 1,3 UV-I 231 W/m 9,6 C 10,4 C 20,9 km/h (4 Bft)
25.10.2022 14:48 13,3 C 15,0 C 79 % 1018,6 hPa 0,0 l/m 8,3 km/h (2 Bft) S-SW 192 0 min 1,1 UV-I 138 W/m 9,7 C 12,1 C 14,5 km/h (3 Bft)
25.10.2022 14:51 13,4 C 15,6 C 79 % 1018,6 hPa 0,0 l/m 12,6 km/h (3 Bft) S 187 0 min 1,1 UV-I 215 W/m 9,8 C 10,2 C 25,7 km/h (4 Bft)
25.10.2022 14:54 13,4 C 16,1 C 78 % 1018,5 hPa 0,0 l/m 14,5 km/h (3 Bft) S-SW 195 0 min 1,4 UV-I 264 W/m 9,6 C 9,4 C 19,3 km/h (3 Bft)
25.10.2022 14:57 13,5 C 15,0 C 78 % 1018,4 hPa 0,0 l/m 6,8 km/h (2 Bft) SW 222 0 min 1,2 UV-I 173 W/m 9,7 C 13,3 C 14,5 km/h (3 Bft)
25.10.2022 15:00 13,7 C 16,7 C 79 % 1018,4 hPa 0,0 l/m 10,7 km/h (2 Bft) S-SO 165 0 min 1,2 UV-I 170 W/m 10,1 C 11,3 C 25,7 km/h (4 Bft)
25.10.2022 15:03 14,1 C 20,6 C 77 % 1018,4 hPa 0,0 l/m 13,0 km/h (3 Bft) S-SW 205 3 min 1,8 UV-I 408 W/m 10,1 C 10,8 C 25,7 km/h (4 Bft)
25.10.2022 15:06 14,2 C 20,6 C 76 % 1018,3 hPa 0,0 l/m 13,5 km/h (3 Bft) S-SW 199 3 min 1,7 UV-I 534 W/m 10,0 C 10,8 C 22,5 km/h (4 Bft)
25.10.2022 15:09 14,3 C 21,7 C 76 % 1018,4 hPa 0,0 l/m 12,4 km/h (3 Bft) S-SO 157 3 min 1,7 UV-I 512 W/m 10,1 C 11,3 C 20,9 km/h (4 Bft)
25.10.2022 15:12 14,5 C 22,2 C 75 % 1018,4 hPa 0,0 l/m 12,7 km/h (3 Bft) S 176 3 min 1,7 UV-I 480 W/m 10,1 C 11,4 C 19,3 km/h (3 Bft)
25.10.2022 15:15 14,1 C 20,6 C 74 % 1018,3 hPa 0,0 l/m 16,8 km/h (3 Bft) S-SO 157 3 min 1,7 UV-I 457 W/m 9,5 C 9,5 C 30,6 km/h (5 Bft)
25.10.2022 15:18 13,8 C 16,7 C 76 % 1018,4 hPa 0,0 l/m 13,7 km/h (3 Bft) S-SO 165 0 min 1,2 UV-I 165 W/m 9,6 C 10,2 C 20,9 km/h (4 Bft)
25.10.2022 15:21 13,6 C 14,4 C 76 % 1018,4 hPa 0,0 l/m 15,1 km/h (3 Bft) S-SO 167 0 min 1,0 UV-I 118 W/m 9,4 C 9,5 C 24,1 km/h (4 Bft)
25.10.2022 15:24 13,4 C 13,9 C 77 % 1018,3 hPa 0,0 l/m 10,6 km/h (2 Bft) S-SW 205 0 min 1,1 UV-I 108 W/m 9,5 C 11,1 C 17,7 km/h (3 Bft)
25.10.2022 15:27 13,3 C 13,9 C 78 % 1018,3 hPa 0,0 l/m 9,8 km/h (2 Bft) SW 215 0 min 1,0 UV-I 99 W/m 9,5 C 11,3 C 17,7 km/h (3 Bft)
25.10.2022 15:30 13,2 C 13,3 C 78 % 1018,3 hPa 0,0 l/m 10,3 km/h (2 Bft) S-SW 202 0 min 0,9 UV-I 99 W/m 9,4 C 11,0 C 16,1 km/h (3 Bft)
25.10.2022 15:33 13,2 C 13,3 C 78 % 1018,4 hPa 0,0 l/m 11,3 km/h (2 Bft) S-SW 196 0 min 0,8 UV-I 100 W/m 9,4 C 10,5 C 19,3 km/h (3 Bft)
25.10.2022 15:36 13,2 C 13,3 C 79 % 1018,4 hPa 0,0 l/m 14,0 km/h (3 Bft) S-SW 193 0 min 0,8 UV-I 142 W/m 9,6 C 9,4 C 22,5 km/h (4 Bft)
25.10.2022 15:39 13,2 C 13,3 C 79 % 1018,4 hPa 0,0 l/m 10,9 km/h (2 Bft) SW 218 0 min 0,7 UV-I 109 W/m 9,6 C 10,7 C 16,1 km/h (3 Bft)
25.10.2022 15:42 13,3 C 13,3 C 79 % 1018,5 hPa 0,0 l/m 11,7 km/h (2 Bft) S-SW 192 0 min 0,7 UV-I 108 W/m 9,7 C 10,4 C 17,7 km/h (3 Bft)
25.10.2022 15:45 13,3 C 13,3 C 79 % 1018,3 hPa 0,0 l/m 13,7 km/h (3 Bft) S 191 0 min 0,6 UV-I 105 W/m 9,7 C 9,6 C 19,3 km/h (3 Bft)
25.10.2022 15:48 13,3 C 13,3 C 79 % 1018,4 hPa 0,0 l/m 8,3 km/h (2 Bft) SW 215 0 min 0,5 UV-I 98 W/m 9,7 C 12,1 C 12,9 km/h (3 Bft)
25.10.2022 15:51 13,2 C 13,3 C 79 % 1018,5 hPa 0,0 l/m 11,0 km/h (2 Bft) S 186 0 min 0,5 UV-I 84 W/m 9,6 C 10,6 C 17,7 km/h (3 Bft)
25.10.2022 15:54 13,3 C 13,9 C 80 % 1018,4 hPa 0,0 l/m 9,8 km/h (2 Bft) S-SW 210 0 min 0,2 UV-I 101 W/m 9,9 C 11,3 C 14,5 km/h (3 Bft)
25.10.2022 15:57 13,3 C 13,9 C 80 % 1018,4 hPa 0,0 l/m 7,8 km/h (2 Bft) S-SW 201 0 min 0,7 UV-I 137 W/m 9,9 C 12,4 C 11,3 km/h (2 Bft)
25.10.2022 16:00 13,4 C 13,9 C 80 % 1018,4 hPa 0,0 l/m 7,8 km/h (2 Bft) S-SO 162 0 min 0,6 UV-I 102 W/m 10,0 C 12,5 C 11,3 km/h (2 Bft)
25.10.2022 16:03 13,4 C 15,0 C 79 % 1018,3 hPa 0,0 l/m 6,1 km/h (2 Bft) S-SW 194 0 min 0,6 UV-I 165 W/m 9,8 C 13,4 C 9,7 km/h (2 Bft)
25.10.2022 16:06 13,6 C 14,4 C 80 % 1018,3 hPa 0,0 l/m 8,6 km/h (2 Bft) S 178 0 min 0,7 UV-I 137 W/m 10,2 C 12,3 C 14,5 km/h (3 Bft)
25.10.2022 16:09 13,5 C 13,9 C 79 % 1018,3 hPa 0,0 l/m 9,8 km/h (2 Bft) S 190 0 min 0,6 UV-I 87 W/m 9,9 C 11,6 C 20,9 km/h (4 Bft)
25.10.2022 16:12 13,5 C 13,9 C 79 % 1018,4 hPa 0,0 l/m 10,1 km/h (2 Bft) S 184 0 min 0,5 UV-I 103 W/m 9,9 C 11,4 C 17,7 km/h (3 Bft)
25.10.2022 16:15 13,6 C 13,9 C 79 % 1018,3 hPa 0,0 l/m 9,7 km/h (2 Bft) S 187 0 min 0,3 UV-I 88 W/m 10,0 C 11,7 C 16,1 km/h (3 Bft)
25.10.2022 16:18 13,5 C 13,9 C 80 % 1018,3 hPa 0,0 l/m 11,6 km/h (2 Bft) S-SW 194 0 min 0,0 UV-I 89 W/m 10,1 C 10,7 C 20,9 km/h (4 Bft)
25.10.2022 16:21 13,4 C 13,9 C 79 % 1018,3 hPa 0,0 l/m 12,1 km/h (2 Bft) S 178 0 min 0,1 UV-I 115 W/m 9,8 C 10,4 C 19,3 km/h (3 Bft)
25.10.2022 16:24 13,6 C 15,6 C 79 % 1018,4 hPa 0,0 l/m 10,1 km/h (2 Bft) SO 145 0 min 0,6 UV-I 171 W/m 10,0 C 11,5 C 20,9 km/h (4 Bft)
25.10.2022 16:27 13,7 C 16,7 C 79 % 1018,3 hPa 0,0 l/m 12,4 km/h (3 Bft) S 182 0 min 0,7 UV-I 237 W/m 10,1 C 10,6 C 20,9 km/h (4 Bft)
25.10.2022 16:30 13,9 C 17,8 C 78 % 1018,4 hPa 0,0 l/m 12,1 km/h (2 Bft) S 172 0 min 0,8 UV-I 290 W/m 10,1 C 11,0 C 19,3 km/h (3 Bft)
25.10.2022 16:33 13,9 C 17,8 C 78 % 1018,3 hPa 0,0 l/m 12,3 km/h (3 Bft) S-SO 147 3 min 0,7 UV-I 304 W/m 10,1 C 10,9 C 17,7 km/h (3 Bft)
25.10.2022 16:36 13,9 C 16,7 C 78 % 1018,3 hPa 0,0 l/m 10,8 km/h (2 Bft) SW 222 0 min 0,8 UV-I 232 W/m 10,1 C 11,5 C 19,3 km/h (3 Bft)
25.10.2022 16:39 13,7 C 15,0 C 78 % 1018,3 hPa 0,0 l/m 12,2 km/h (2 Bft) S-SW 200 0 min 0,6 UV-I 169 W/m 9,9 C 10,7 C 22,5 km/h (4 Bft)
25.10.2022 16:42 13,7 C 15,0 C 78 % 1018,3 hPa 0,0 l/m 12,7 km/h (3 Bft) S-SW 212 0 min 0,7 UV-I 234 W/m 9,9 C 10,5 C 19,3 km/h (3 Bft)
25.10.2022 16:45 13,7 C 15,0 C 78 % 1018,2 hPa 0,0 l/m 10,6 km/h (2 Bft) S-SW 196 0 min 0,7 UV-I 202 W/m 9,9 C 11,4 C 19,3 km/h (3 Bft)
25.10.2022 16:48 13,8 C 16,1 C 79 % 1018,3 hPa 0,0 l/m 11,1 km/h (2 Bft) S-SW 201 0 min 0,6 UV-I 231 W/m 10,2 C 11,3 C 16,1 km/h (3 Bft)
25.10.2022 16:51 13,7 C 15,6 C 78 % 1018,3 hPa 0,0 l/m 11,6 km/h (2 Bft) S-SW 198 0 min 0,5 UV-I 147 W/m 9,9 C 10,9 C 19,3 km/h (3 Bft)
25.10.2022 16:54 13,5 C 13,9 C 79 % 1018,3 hPa 0,0 l/m 11,3 km/h (2 Bft) SW 219 0 min 0,0 UV-I 95 W/m 9,9 C 10,9 C 19,3 km/h (3 Bft)
25.10.2022 16:57 13,3 C 13,3 C 80 % 1018,3 hPa 0,0 l/m 7,9 km/h (2 Bft) S-SW 198 0 min 0,0 UV-I 73 W/m 9,9 C 12,4 C 14,5 km/h (3 Bft)
25.10.2022 17:00 13,2 C 12,8 C 80 % 1018,2 hPa 0,0 l/m 10,5 km/h (2 Bft) S 173 0 min 0,0 UV-I 51 W/m 9,8 C 10,9 C 16,1 km/h (3 Bft)
25.10.2022 17:03 13,1 C 12,8 C 80 % 1018,3 hPa 0,0 l/m 8,4 km/h (2 Bft) S 178 0 min 0,0 UV-I 48 W/m 9,7 C 11,9 C 11,3 km/h (2 Bft)
25.10.2022 17:09 13,1 C 12,8 C 80 % 1018,2 hPa 0,0 l/m 9,4 km/h (2 Bft) SW 232 0 min 0,0 UV-I 69 W/m 9,7 C 11,3 C 19,3 km/h (3 Bft)
25.10.2022 17:12 13,0 C 12,8 C 81 % 1018,2 hPa 0,0 l/m 6,6 km/h (2 Bft) S 185 0 min 0,0 UV-I 51 W/m 9,8 C 12,9 C 11,3 km/h (2 Bft)
25.10.2022 17:15 13,0 C 12,8 C 81 % 1018,2 hPa 0,0 l/m 9,3 km/h (2 Bft) S 169 0 min 0,0 UV-I 49 W/m 9,8 C 11,3 C 14,5 km/h (3 Bft)
25.10.2022 17:18 13,0 C 12,8 C 81 % 1018,2 hPa 0,0 l/m 6,3 km/h (2 Bft) S-SO 150 0 min 0,0 UV-I 49 W/m 9,8 C 13,0 C 11,3 km/h (2 Bft)
25.10.2022 17:21 13,0 C 13,9 C 81 % 1018,2 hPa 0,0 l/m 8,4 km/h (2 Bft) S 169 0 min 0,0 UV-I 86 W/m 9,8 C 11,8 C 12,9 km/h (3 Bft)
25.10.2022 17:24 13,1 C 14,4 C 81 % 1018,2 hPa 0,0 l/m 9,2 km/h (2 Bft) S-SO 159 0 min 0,0 UV-I 88 W/m 9,9 C 11,4 C 14,5 km/h (3 Bft)
25.10.2022 17:27 13,1 C 13,9 C 80 % 1018,1 hPa 0,0 l/m 9,4 km/h (2 Bft) SO 140 0 min 0,0 UV-I 64 W/m 9,7 C 11,3 C 16,1 km/h (3 Bft)
25.10.2022 17:30 13,1 C 13,9 C 80 % 1018,1 hPa 0,0 l/m 8,5 km/h (2 Bft) S 170 0 min 0,0 UV-I 62 W/m 9,7 C 11,8 C 12,9 km/h (3 Bft)
25.10.2022 17:33 12,9 C 13,3 C 80 % 1018,1 hPa 0,0 l/m 7,3 km/h (2 Bft) S 174 0 min 0,0 UV-I 35 W/m 9,5 C 12,3 C 11,3 km/h (2 Bft)
25.10.2022 17:36 12,8 C 12,8 C 81 % 1018,2 hPa 0,0 l/m 6,5 km/h (2 Bft) S-SO 155 0 min 0,0 UV-I 31 W/m 9,6 C 12,8 C 9,7 km/h (2 Bft)
25.10.2022 17:39 12,8 C 12,2 C 81 % 1018,2 hPa 0,0 l/m 6,8 km/h (2 Bft) S-SO 161 0 min 0,0 UV-I 29 W/m 9,6 C 12,6 C 9,7 km/h (2 Bft)
25.10.2022 17:42 12,7 C 12,2 C 81 % 1018,1 hPa 0,0 l/m 6,0 km/h (2 Bft) S-SO 148 0 min 0,0 UV-I 26 W/m 9,5 C 12,7 C 11,3 km/h (2 Bft)
25.10.2022 17:45 12,7 C 12,2 C 81 % 1018,0 hPa 0,0 l/m 4,1 km/h (1 Bft) S 190 0 min 0,0 UV-I 22 W/m 9,5 C 12,7 C 14,5 km/h (3 Bft)
25.10.2022 17:48 12,6 C 12,2 C 81 % 1018,0 hPa 0,0 l/m 5,9 km/h (2 Bft) S-SO 153 0 min 0,0 UV-I 18 W/m 9,4 C 12,6 C 12,9 km/h (3 Bft)
25.10.2022 17:51 12,6 C 12,2 C 82 % 1018,0 hPa 0,0 l/m 5,6 km/h (1 Bft) SO 139 0 min 0,0 UV-I 15 W/m 9,6 C 12,6 C 12,9 km/h (3 Bft)
25.10.2022 17:54 12,6 C 12,2 C 82 % 1018,0 hPa 0,0 l/m 5,1 km/h (1 Bft) S-SO 152 0 min 0,0 UV-I 17 W/m 9,6 C 12,6 C 6,4 km/h (2 Bft)
25.10.2022 17:57 12,5 C 11,7 C 82 % 1018,1 hPa 0,0 l/m 7,1 km/h (2 Bft) S-SO 167 0 min 0,0 UV-I 21 W/m 9,5 C 12,0 C 11,3 km/h (2 Bft)
25.10.2022 18:00 12,5 C 11,7 C 82 % 1018,1 hPa 0,0 l/m 7,3 km/h (2 Bft) S-SO 155 0 min 0,0 UV-I 19 W/m 9,5 C 11,9 C 11,3 km/h (2 Bft)
25.10.2022 18:03 12,4 C 11,7 C 82 % 1018,0 hPa 0,0 l/m 4,8 km/h (1 Bft) S-SO 150 0 min 0,0 UV-I 15 W/m 9,4 C 12,4 C 8,0 km/h (2 Bft)
25.10.2022 18:06 12,3 C 11,1 C 82 % 1017,9 hPa 0,0 l/m 4,3 km/h (1 Bft) SO 142 0 min 0,0 UV-I 12 W/m 9,3 C 12,3 C 8,0 km/h (2 Bft)
25.10.2022 18:09 12,1 C 10,6 C 82 % 1018,0 hPa 0,0 l/m 4,9 km/h (1 Bft) SO 146 0 min 0,0 UV-I 11 W/m 9,1 C 12,1 C 8,0 km/h (2 Bft)
25.10.2022 18:12 11,9 C 10,6 C 83 % 1017,9 hPa 0,0 l/m 4,5 km/h (1 Bft) S-SO 148 0 min 0,0 UV-I 9 W/m 9,1 C 11,9 C 8,0 km/h (2 Bft)
25.10.2022 18:15 11,8 C 10,0 C 83 % 1018,0 hPa 0,0 l/m 6,0 km/h (2 Bft) S-SO 162 0 min 0,0 UV-I 6 W/m 9,0 C 11,8 C 9,7 km/h (2 Bft)
25.10.2022 18:18 11,7 C 10,0 C 84 % 1018,0 hPa 0,0 l/m 6,3 km/h (2 Bft) S-SO 167 0 min 0,0 UV-I 4 W/m 9,1 C 11,7 C 9,7 km/h (2 Bft)
25.10.2022 18:21 11,6 C 9,4 C 84 % 1018,0 hPa 0,0 l/m 5,1 km/h (1 Bft) S-SO 167 0 min 0,0 UV-I 0 W/m 9,0 C 11,6 C 6,4 km/h (2 Bft)
25.10.2022 18:24 11,4 C 9,4 C 84 % 1017,8 hPa 0,0 l/m 4,1 km/h (1 Bft) S-SO 167 0 min 0,0 UV-I 0 W/m 8,8 C 11,4 C 6,4 km/h (2 Bft)
25.10.2022 18:27 11,3 C 8,9 C 84 % 1017,9 hPa 0,0 l/m 6,0 km/h (2 Bft) S 173 0 min 0,0 UV-I 0 W/m 8,7 C 11,3 C 8,0 km/h (2 Bft)
25.10.2022 18:30 11,1 C 8,9 C 85 % 1017,8 hPa 0,0 l/m 5,7 km/h (1 Bft) SO 143 0 min 0,0 UV-I 0 W/m 8,7 C 11,1 C 8,0 km/h (2 Bft)
25.10.2022 18:33 11,1 C 8,3 C 85 % 1017,9 hPa 0,0 l/m 5,7 km/h (1 Bft) S 183 0 min 0,0 UV-I 0 W/m 8,7 C 11,1 C 9,7 km/h (2 Bft)
25.10.2022 18:36 11,1 C 8,9 C 85 % 1017,9 hPa 0,0 l/m 4,8 km/h (1 Bft) S 180 0 min 0,0 UV-I 0 W/m 8,7 C 11,1 C 8,0 km/h (2 Bft)
25.10.2022 18:39 11,0 C 8,3 C 86 % 1018,4 hPa 0,0 l/m 5,9 km/h (2 Bft) S-SO 166 0 min 0,0 UV-I 0 W/m 8,7 C 11,0 C 9,7 km/h (2 Bft)
25.10.2022 18:42 10,9 C 8,3 C 86 % 1017,8 hPa 0,0 l/m 5,6 km/h (1 Bft) S-SO 166 0 min 0,0 UV-I 0 W/m 8,7 C 10,9 C 8,0 km/h (2 Bft)
25.10.2022 18:45 10,9 C 8,3 C 86 % 1017,8 hPa 0,0 l/m 5,3 km/h (1 Bft) S-SO 166 0 min 0,0 UV-I 0 W/m 8,7 C 10,9 C 8,0 km/h (2 Bft)
25.10.2022 18:48 10,8 C 8,3 C 86 % 1017,8 hPa 0,0 l/m 3,9 km/h (1 Bft) S-SO 166 0 min 0,0 UV-I 0 W/m 8,6 C 10,8 C 6,4 km/h (2 Bft)
25.10.2022 18:51 10,8 C 7,8 C 86 % 1017,8 hPa 0,0 l/m 3,9 km/h (1 Bft) S-SO 155 0 min 0,0 UV-I 0 W/m 8,6 C 10,8 C 8,0 km/h (2 Bft)
25.10.2022 18:54 10,8 C 8,3 C 86 % 1017,8 hPa 0,0 l/m 5,9 km/h (2 Bft) S-SO 150 0 min 0,0 UV-I 0 W/m 8,6 C 10,8 C 8,0 km/h (2 Bft)
25.10.2022 18:57 10,8 C 8,9 C 86 % 1017,7 hPa 0,0 l/m 4,9 km/h (1 Bft) S-SO 150 0 min 0,0 UV-I 0 W/m 8,6 C 10,8 C 8,0 km/h (2 Bft)
25.10.2022 19:00 10,7 C 8,9 C 86 % 1017,7 hPa 0,0 l/m 5,0 km/h (1 Bft) S-SO 152 0 min 0,0 UV-I 0 W/m 8,5 C 10,7 C 8,0 km/h (2 Bft)
25.10.2022 19:03 10,7 C 8,3 C 87 % 1017,7 hPa 0,0 l/m 5,6 km/h (1 Bft) S-SO 159 0 min 0,0 UV-I 0 W/m 8,6 C 10,7 C 9,7 km/h (2 Bft)
25.10.2022 19:06 10,7 C 8,3 C 87 % 1017,6 hPa 0,0 l/m 5,2 km/h (1 Bft) S-SO 160 0 min 0,0 UV-I 0 W/m 8,6 C 10,7 C 8,0 km/h (2 Bft)
25.10.2022 19:09 10,6 C 8,3 C 86 % 1017,6 hPa 0,0 l/m 2,7 km/h (1 Bft) S-SO 160 0 min 0,0 UV-I 0 W/m 8,4 C 10,6 C 6,4 km/h (2 Bft)
25.10.2022 19:12 10,4 C 7,8 C 87 % 1017,5 hPa 0,0 l/m 2,3 km/h (1 Bft) S-SO 160 0 min 0,0 UV-I 0 W/m 8,3 C 10,4 C 3,2 km/h (1 Bft)
25.10.2022 19:15 10,2 C 7,2 C 87 % 1017,6 hPa 0,0 l/m 1,5 km/h (1 Bft) S-SO 160 0 min 0,0 UV-I 0 W/m 8,1 C 10,2 C 3,2 km/h (1 Bft)
25.10.2022 19:18 9,9 C 7,2 C 87 % 1017,6 hPa 0,0 l/m 0,4 km/h (0 Bft) S-SO 160 0 min 0,0 UV-I 0 W/m 7,8 C 9,9 C 1,6 km/h (1 Bft)
25.10.2022 19:21 9,8 C 7,2 C 88 % 1017,7 hPa 0,0 l/m 1,3 km/h (1 Bft) S-SO 160 0 min 0,0 UV-I 0 W/m 7,9 C 9,8 C 3,2 km/h (1 Bft)
25.10.2022 19:24 9,8 C 7,8 C 89 % 1017,6 hPa 0,0 l/m 5,4 km/h (1 Bft) S-SO 161 0 min 0,0 UV-I 0 W/m 8,1 C 9,8 C 8,0 km/h (2 Bft)
25.10.2022 19:27 9,7 C 7,2 C 88 % 1017,5 hPa 0,0 l/m 3,0 km/h (1 Bft) S-SO 159 0 min 0,0 UV-I 0 W/m 7,8 C 9,7 C 8,0 km/h (2 Bft)
25.10.2022 19:30 9,7 C 7,2 C 88 % 1017,6 hPa 0,0 l/m 3,4 km/h (1 Bft) S-SO 159 0 min 0,0 UV-I 0 W/m 7,8 C 9,7 C 6,4 km/h (2 Bft)
25.10.2022 19:33 9,5 C 6,7 C 89 % 1017,5 hPa 0,0 l/m 1,4 km/h (1 Bft) S-SO 159 0 min 0,0 UV-I 0 W/m 7,8 C 9,5 C 3,2 km/h (1 Bft)
25.10.2022 19:36 9,4 C 7,2 C 89 % 1017,6 hPa 0,0 l/m 1,1 km/h (1 Bft) S-SO 159 0 min 0,0 UV-I 0 W/m 7,7 C 9,4 C 3,2 km/h (1 Bft)
25.10.2022 19:39 9,4 C 6,7 C 89 % 1017,5 hPa 0,0 l/m 0,5 km/h (0 Bft) S-SO 159 0 min 0,0 UV-I 0 W/m 7,7 C 9,4 C 3,2 km/h (1 Bft)
25.10.2022 19:42 9,4 C 6,7 C 89 % 1017,6 hPa 0,0 l/m 0,3 km/h (0 Bft) S-SO 159 0 min 0,0 UV-I 0 W/m 7,7 C 9,4 C 1,6 km/h (1 Bft)
25.10.2022 19:45 9,1 C 6,1 C 89 % 1017,5 hPa 0,0 l/m 0,0 km/h (0 Bft) S-SO 159 0 min 0,0 UV-I 0 W/m 7,4 C 9,1 C 0,0 km/h (0 Bft)
25.10.2022 19:48 9,0 C 6,1 C 90 % 1017,5 hPa 0,0 l/m 0,0 km/h (0 Bft) S-SO 159 0 min 0,0 UV-I 0 W/m 7,4 C 9,0 C 0,0 km/h (0 Bft)
25.10.2022 19:51 8,9 C 6,1 C 90 % 1017,7 hPa 0,0 l/m 0,0 km/h (0 Bft) S-SO 159 0 min 0,0 UV-I 0 W/m 7,4 C 8,9 C 0,0 km/h (0 Bft)
25.10.2022 19:54 8,9 C 6,7 C 90 % 1017,6 hPa 0,0 l/m 0,0 km/h (0 Bft) S-SO 159 0 min 0,0 UV-I 0 W/m 7,4 C 8,9 C 0,0 km/h (0 Bft)
25.10.2022 19:57 9,0 C 6,1 C 90 % 1017,6 hPa 0,0 l/m 0,0 km/h (0 Bft) S-SO 159 0 min 0,0 UV-I 0 W/m 7,4 C 9,0 C 0,0 km/h (0 Bft)
25.10.2022 20:00 8,9 C 6,1 C 90 % 1017,5 hPa 0,0 l/m 0,0 km/h (0 Bft) S-SO 159 0 min 0,0 UV-I 0 W/m 7,4 C 8,9 C 0,0 km/h (0 Bft)
25.10.2022 20:03 8,9 C 6,1 C 91 % 1017,5 hPa 0,0 l/m 0,0 km/h (0 Bft) S-SO 159 0 min 0,0 UV-I 0 W/m 7,5 C 8,9 C 0,0 km/h (0 Bft)
25.10.2022 20:06 8,9 C 6,7 C 91 % 1017,6 hPa 0,0 l/m 0,0 km/h (0 Bft) S-SO 159 0 min 0,0 UV-I 0 W/m 7,5 C 8,9 C 0,0 km/h (0 Bft)
25.10.2022 20:09 9,0 C 6,1 C 91 % 1017,6 hPa 0,0 l/m 0,0 km/h (0 Bft) S-SO 159 0 min 0,0 UV-I 0 W/m 7,6 C 9,0 C 0,0 km/h (0 Bft)
25.10.2022 20:12 9,1 C 6,1 C 91 % 1017,6 hPa 0,0 l/m 0,0 km/h (0 Bft) S-SO 159 0 min 0,0 UV-I 0 W/m 7,7 C 9,1 C 0,0 km/h (0 Bft)
25.10.2022 20:15 9,0 C 6,1 C 91 % 1017,6 hPa 0,0 l/m 0,3 km/h (0 Bft) S-SO 159 0 min 0,0 UV-I 0 W/m 7,6 C 9,0 C 1,6 km/h (1 Bft)
25.10.2022 20:18 8,8 C 6,1 C 90 % 1017,7 hPa 0,0 l/m 2,9 km/h (1 Bft) S-SO 159 0 min 0,0 UV-I 0 W/m 7,3 C 8,8 C 6,4 km/h (2 Bft)
25.10.2022 20:21 8,6 C 5,6 C 91 % 1017,6 hPa 0,0 l/m 3,2 km/h (1 Bft) S-SO 159 0 min 0,0 UV-I 0 W/m 7,2 C 8,6 C 6,4 km/h (2 Bft)
25.10.2022 20:24 8,5 C 5,6 C 91 % 1017,7 hPa 0,0 l/m 3,2 km/h (1 Bft) S-SO 158 0 min 0,0 UV-I 0 W/m 7,1 C 8,5 C 8,0 km/h (2 Bft)
25.10.2022 20:27 8,4 C 6,1 C 91 % 1017,7 hPa 0,0 l/m 1,2 km/h (1 Bft) S-SO 158 0 min 0,0 UV-I 0 W/m 7,0 C 8,4 C 4,8 km/h (1 Bft)
25.10.2022 20:30 8,3 C 6,1 C 91 % 1017,6 hPa 0,0 l/m 0,7 km/h (0 Bft) S-SO 158 0 min 0,0 UV-I 0 W/m 6,9 C 8,3 C 3,2 km/h (1 Bft)
25.10.2022 20:33 8,6 C 6,1 C 92 % 1017,6 hPa 0,0 l/m 1,3 km/h (1 Bft) S-SO 158 0 min 0,0 UV-I 0 W/m 7,4 C 8,6 C 3,2 km/h (1 Bft)
25.10.2022 20:36 8,6 C 6,1 C 91 % 1017,6 hPa 0,0 l/m 0,2 km/h (0 Bft) S-SO 158 0 min 0,0 UV-I 0 W/m 7,2 C 8,6 C 1,6 km/h (1 Bft)
25.10.2022 20:39 8,8 C 6,7 C 92 % 1017,5 hPa 0,0 l/m 0,1 km/h (0 Bft) S-SO 158 0 min 0,0 UV-I 0 W/m 7,6 C 8,8 C 1,6 km/h (1 Bft)
25.10.2022 20:42 9,0 C 6,7 C 92 % 1017,5 hPa 0,0 l/m 1,7 km/h (1 Bft) S-SO 158 0 min 0,0 UV-I 0 W/m 7,8 C 9,0 C 3,2 km/h (1 Bft)
25.10.2022 20:45 8,4 C 6,1 C 90 % 1017,6 hPa 0,0 l/m 1,3 km/h (1 Bft) S-SO 158 0 min 0,0 UV-I 0 W/m 6,9 C 8,4 C 1,6 km/h (1 Bft)
25.10.2022 20:48 8,3 C 6,1 C 92 % 1017,6 hPa 0,0 l/m 1,7 km/h (1 Bft) S-SO 158 0 min 0,0 UV-I 0 W/m 7,1 C 8,3 C 3,2 km/h (1 Bft)
25.10.2022 20:51 8,6 C 6,7 C 92 % 1017,5 hPa 0,0 l/m 4,3 km/h (1 Bft) S-SO 159 0 min 0,0 UV-I 0 W/m 7,4 C 8,6 C 8,0 km/h (2 Bft)
25.10.2022 20:54 8,4 C 6,1 C 91 % 1017,5 hPa 0,0 l/m 2,7 km/h (1 Bft) S-SO 159 0 min 0,0 UV-I 0 W/m 7,0 C 8,4 C 8,0 km/h (2 Bft)
25.10.2022 20:57 8,5 C 6,7 C 92 % 1017,5 hPa 0,0 l/m 3,4 km/h (1 Bft) S-SO 158 0 min 0,0 UV-I 0 W/m 7,3 C 8,5 C 9,7 km/h (2 Bft)
25.10.2022 21:00 8,4 C 6,7 C 92 % 1017,5 hPa 0,0 l/m 2,1 km/h (1 Bft) S-SO 158 0 min 0,0 UV-I 0 W/m 7,2 C 8,4 C 4,8 km/h (1 Bft)
25.10.2022 21:03 8,6 C 6,7 C 92 % 1017,6 hPa 0,0 l/m 2,5 km/h (1 Bft) S-SO 158 0 min 0,0 UV-I 0 W/m 7,4 C 8,6 C 4,8 km/h (1 Bft)
25.10.2022 21:06 8,3 C 6,1 C 92 % 1017,5 hPa 0,0 l/m 2,3 km/h (1 Bft) S-SO 158 0 min 0,0 UV-I 0 W/m 7,1 C 8,3 C 4,8 km/h (1 Bft)
25.10.2022 21:09 8,3 C 6,1 C 92 % 1017,5 hPa 0,0 l/m 4,4 km/h (1 Bft) S 180 0 min 0,0 UV-I 0 W/m 7,1 C 8,3 C 11,3 km/h (2 Bft)
25.10.2022 21:12 8,5 C 6,7 C 93 % 1017,5 hPa 0,0 l/m 2,2 km/h (1 Bft) S 179 0 min 0,0 UV-I 0 W/m 7,4 C 8,5 C 4,8 km/h (1 Bft)
25.10.2022 21:15 8,7 C 6,7 C 92 % 1017,5 hPa 0,0 l/m 1,7 km/h (1 Bft) S 179 0 min 0,0 UV-I 0 W/m 7,5 C 8,7 C 4,8 km/h (1 Bft)
25.10.2022 21:18 8,3 C 6,1 C 91 % 1017,5 hPa 0,0 l/m 2,3 km/h (1 Bft) S 179 0 min 0,0 UV-I 0 W/m 6,9 C 8,3 C 4,8 km/h (1 Bft)
25.10.2022 21:21 8,4 C 6,1 C 93 % 1017,5 hPa 0,0 l/m 3,4 km/h (1 Bft) SO 138 0 min 0,0 UV-I 0 W/m 7,3 C 8,4 C 11,3 km/h (2 Bft)
25.10.2022 21:24 8,8 C 6,7 C 93 % 1017,3 hPa 0,0 l/m 5,8 km/h (2 Bft) SO 142 0 min 0,0 UV-I 0 W/m 7,7 C 8,8 C 11,3 km/h (2 Bft)
25.10.2022 21:27 9,3 C 7,8 C 93 % 1017,4 hPa 0,0 l/m 4,8 km/h (1 Bft) SO 140 0 min 0,0 UV-I 0 W/m 8,2 C 9,3 C 12,9 km/h (3 Bft)
25.10.2022 21:30 9,4 C 7,8 C 93 % 1017,4 hPa 0,0 l/m 5,3 km/h (1 Bft) S-SO 161 0 min 0,0 UV-I 0 W/m 8,3 C 9,4 C 9,7 km/h (2 Bft)
25.10.2022 21:33 9,6 C 8,3 C 93 % 1017,4 hPa 0,0 l/m 7,1 km/h (2 Bft) S-SW 205 0 min 0,0 UV-I 0 W/m 8,5 C 9,1 C 11,3 km/h (2 Bft)
25.10.2022 21:36 9,6 C 7,8 C 92 % 1017,4 hPa 0,0 l/m 6,5 km/h (2 Bft) S-SO 161 0 min 0,0 UV-I 0 W/m 8,4 C 9,6 C 14,5 km/h (3 Bft)
25.10.2022 21:39 9,6 C 8,3 C 92 % 1017,4 hPa 0,0 l/m 5,7 km/h (1 Bft) S-SO 165 0 min 0,0 UV-I 0 W/m 8,4 C 9,6 C 12,9 km/h (3 Bft)
25.10.2022 21:42 8,9 C 7,8 C 91 % 1017,3 hPa 0,0 l/m 4,4 km/h (1 Bft) SO 140 0 min 0,0 UV-I 0 W/m 7,5 C 8,9 C 8,0 km/h (2 Bft)
25.10.2022 21:45 8,8 C 7,2 C 92 % 1017,4 hPa 0,0 l/m 3,4 km/h (1 Bft) SO 138 0 min 0,0 UV-I 0 W/m 7,6 C 8,8 C 6,4 km/h (2 Bft)
25.10.2022 21:48 8,8 C 6,7 C 92 % 1017,3 hPa 0,0 l/m 1,5 km/h (1 Bft) SO 138 0 min 0,0 UV-I 0 W/m 7,6 C 8,8 C 4,8 km/h (1 Bft)
25.10.2022 21:51 8,8 C 6,7 C 92 % 1017,3 hPa 0,0 l/m 4,0 km/h (1 Bft) SO 139 0 min 0,0 UV-I 0 W/m 7,6 C 8,8 C 9,7 km/h (2 Bft)
25.10.2022 21:54 8,8 C 7,2 C 92 % 1017,3 hPa 0,0 l/m 2,8 km/h (1 Bft) SO 141 0 min 0,0 UV-I 0 W/m 7,6 C 8,8 C 4,8 km/h (1 Bft)
25.10.2022 21:57 9,0 C 7,2 C 92 % 1017,2 hPa 0,0 l/m 4,7 km/h (1 Bft) S-SO 163 0 min 0,0 UV-I 0 W/m 7,8 C 9,0 C 11,3 km/h (2 Bft)
25.10.2022 22:00 9,2 C 7,2 C 92 % 1017,1 hPa 0,0 l/m 1,5 km/h (1 Bft) S-SO 163 0 min 0,0 UV-I 0 W/m 8,0 C 9,2 C 6,4 km/h (2 Bft)
25.10.2022 22:03 9,2 C 7,2 C 92 % 1017,2 hPa 0,0 l/m 2,5 km/h (1 Bft) S-SO 164 0 min 0,0 UV-I 0 W/m 8,0 C 9,2 C 6,4 km/h (2 Bft)
25.10.2022 22:06 9,1 C 6,7 C 91 % 1017,2 hPa 0,0 l/m 1,9 km/h (1 Bft) S-SO 163 0 min 0,0 UV-I 0 W/m 7,7 C 9,1 C 6,4 km/h (2 Bft)
25.10.2022 22:09 8,7 C 6,7 C 91 % 1017,2 hPa 0,0 l/m 4,6 km/h (1 Bft) S 171 0 min 0,0 UV-I 0 W/m 7,3 C 8,7 C 9,7 km/h (2 Bft)
25.10.2022 22:12 8,6 C 6,7 C 91 % 1017,1 hPa 0,0 l/m 2,6 km/h (1 Bft) S-SO 157 0 min 0,0 UV-I 0 W/m 7,2 C 8,6 C 8,0 km/h (2 Bft)
25.10.2022 22:15 8,2 C 6,1 C 91 % 1017,0 hPa 0,0 l/m 2,2 km/h (1 Bft) S 186 0 min 0,0 UV-I 0 W/m 6,8 C 8,2 C 9,7 km/h (2 Bft)
25.10.2022 22:18 8,7 C 6,7 C 92 % 1017,0 hPa 0,0 l/m 3,3 km/h (1 Bft) S 171 0 min 0,0 UV-I 0 W/m 7,5 C 8,7 C 8,0 km/h (2 Bft)
25.10.2022 22:21 9,0 C 7,8 C 92 % 1017,1 hPa 0,0 l/m 4,6 km/h (1 Bft) S 171 0 min 0,0 UV-I 0 W/m 7,8 C 9,0 C 8,0 km/h (2 Bft)
25.10.2022 22:24 9,1 C 7,2 C 92 % 1017,1 hPa 0,0 l/m 4,5 km/h (1 Bft) S-SO 167 0 min 0,0 UV-I 0 W/m 7,9 C 9,1 C 8,0 km/h (2 Bft)
25.10.2022 22:27 9,1 C 6,7 C 92 % 1017,0 hPa 0,0 l/m 4,2 km/h (1 Bft) S-SO 164 0 min 0,0 UV-I 0 W/m 7,9 C 9,1 C 9,7 km/h (2 Bft)
25.10.2022 22:30 9,0 C 6,7 C 92 % 1017,1 hPa 0,0 l/m 2,7 km/h (1 Bft) S-SO 164 0 min 0,0 UV-I 0 W/m 7,8 C 9,0 C 6,4 km/h (2 Bft)
25.10.2022 22:33 9,3 C 7,2 C 93 % 1017,0 hPa 0,0 l/m 2,8 km/h (1 Bft) S-SO 164 0 min 0,0 UV-I 0 W/m 8,2 C 9,3 C 6,4 km/h (2 Bft)
25.10.2022 22:36 8,9 C 7,2 C 90 % 1016,9 hPa 0,0 l/m 2,5 km/h (1 Bft) S-SO 164 0 min 0,0 UV-I 0 W/m 7,4 C 8,9 C 8,0 km/h (2 Bft)
25.10.2022 22:39 7,9 C 7,2 C 90 % 1016,9 hPa 0,0 l/m 1,0 km/h (0 Bft) S-SO 164 0 min 0,0 UV-I 0 W/m 6,4 C 7,9 C 3,2 km/h (1 Bft)
25.10.2022 22:42 7,7 C 6,7 C 91 % 1017,0 hPa 0,0 l/m 0,2 km/h (0 Bft) S-SO 164 0 min 0,0 UV-I 0 W/m 6,3 C 7,7 C 1,6 km/h (1 Bft)
25.10.2022 22:45 8,0 C 6,1 C 93 % 1017,1 hPa 0,0 l/m 0,4 km/h (0 Bft) S-SO 164 0 min 0,0 UV-I 0 W/m 6,9 C 8,0 C 1,6 km/h (1 Bft)
25.10.2022 22:48 7,4 C 6,1 C 90 % 1017,1 hPa 0,0 l/m 0,0 km/h (0 Bft) S-SO 164 0 min 0,0 UV-I 0 W/m 5,9 C 7,4 C 1,6 km/h (1 Bft)
25.10.2022 22:51 7,4 C 6,1 C 91 % 1017,1 hPa 0,0 l/m 0,1 km/h (0 Bft) S-SO 164 0 min 0,0 UV-I 0 W/m 6,0 C 7,4 C 1,6 km/h (1 Bft)
25.10.2022 22:54 7,4 C 6,1 C 92 % 1017,1 hPa 0,0 l/m 0,0 km/h (0 Bft) S-SO 164 0 min 0,0 UV-I 0 W/m 6,2 C 7,4 C 1,6 km/h (1 Bft)
25.10.2022 22:57 7,1 C 5,6 C 91 % 1017,0 hPa 0,0 l/m 0,0 km/h (0 Bft) S-SO 164 0 min 0,0 UV-I 0 W/m 5,7 C 7,1 C 1,6 km/h (1 Bft)
25.10.2022 23:00 7,0 C 5,6 C 91 % 1017,0 hPa 0,0 l/m 0,4 km/h (0 Bft) S-SO 164 0 min 0,0 UV-I 0 W/m 5,6 C 7,0 C 1,6 km/h (1 Bft)
25.10.2022 23:03 6,9 C 6,1 C 92 % 1017,0 hPa 0,0 l/m 0,8 km/h (0 Bft) S-SO 164 0 min 0,0 UV-I 0 W/m 5,7 C 6,9 C 6,4 km/h (2 Bft)
25.10.2022 23:06 7,1 C 6,1 C 92 % 1017,0 hPa 0,0 l/m 1,8 km/h (1 Bft) S-SO 164 0 min 0,0 UV-I 0 W/m 5,9 C 7,1 C 3,2 km/h (1 Bft)
25.10.2022 23:09 7,0 C 6,1 C 92 % 1017,0 hPa 0,0 l/m 1,4 km/h (1 Bft) S-SO 164 0 min 0,0 UV-I 0 W/m 5,8 C 7,0 C 3,2 km/h (1 Bft)
25.10.2022 23:12 6,8 C 6,1 C 92 % 1017,1 hPa 0,0 l/m 0,7 km/h (0 Bft) S-SO 163 0 min 0,0 UV-I 0 W/m 5,6 C 6,8 C 1,6 km/h (1 Bft)
25.10.2022 23:15 6,9 C 6,1 C 92 % 1017,0 hPa 0,0 l/m 1,1 km/h (1 Bft) S-SO 164 0 min 0,0 UV-I 0 W/m 5,7 C 6,9 C 3,2 km/h (1 Bft)
25.10.2022 23:18 6,9 C 6,1 C 92 % 1017,0 hPa 0,0 l/m 1,5 km/h (1 Bft) S-SO 164 0 min 0,0 UV-I 0 W/m 5,7 C 6,9 C 3,2 km/h (1 Bft)
25.10.2022 23:21 6,9 C 6,1 C 92 % 1017,0 hPa 0,0 l/m 0,8 km/h (0 Bft) S-SO 164 0 min 0,0 UV-I 0 W/m 5,7 C 6,9 C 3,2 km/h (1 Bft)
25.10.2022 23:24 6,9 C 6,1 C 92 % 1017,1 hPa 0,0 l/m 0,0 km/h (0 Bft) S-SO 164 0 min 0,0 UV-I 0 W/m 5,7 C 6,9 C 1,6 km/h (1 Bft)
25.10.2022 23:27 6,8 C 6,1 C 92 % 1017,1 hPa 0,0 l/m 0,3 km/h (0 Bft) S-SO 164 0 min 0,0 UV-I 0 W/m 5,6 C 6,8 C 1,6 km/h (1 Bft)
25.10.2022 23:30 6,9 C 6,1 C 92 % 1017,1 hPa 0,0 l/m 0,4 km/h (0 Bft) S-SO 164 0 min 0,0 UV-I 0 W/m 5,7 C 6,9 C 3,2 km/h (1 Bft)
25.10.2022 23:33 6,9 C 6,1 C 92 % 1017,0 hPa 0,0 l/m 0,1 km/h (0 Bft) S-SO 164 0 min 0,0 UV-I 0 W/m 5,7 C 6,9 C 1,6 km/h (1 Bft)
25.10.2022 23:36 6,8 C 6,1 C 92 % 1017,0 hPa 0,0 l/m 0,2 km/h (0 Bft) S-SO 164 0 min 0,0 UV-I 0 W/m 5,6 C 6,8 C 1,6 km/h (1 Bft)
25.10.2022 23:39 6,8 C 6,1 C 93 % 1017,0 hPa 0,0 l/m 1,0 km/h (0 Bft) S-SO 164 0 min 0,0 UV-I 0 W/m 5,7 C 6,8 C 3,2 km/h (1 Bft)
25.10.2022 23:42 6,9 C 6,1 C 93 % 1016,9 hPa 0,0 l/m 0,5 km/h (0 Bft) S-SO 164 0 min 0,0 UV-I 0 W/m 5,8 C 6,9 C 3,2 km/h (1 Bft)
25.10.2022 23:45 6,9 C 6,1 C 93 % 1016,9 hPa 0,0 l/m 0,1 km/h (0 Bft) S-SO 164 0 min 0,0 UV-I 0 W/m 5,8 C 6,9 C 1,6 km/h (1 Bft)
25.10.2022 23:48 7,1 C 6,1 C 93 % 1017,0 hPa 0,0 l/m 0,0 km/h (0 Bft) S-SO 164 0 min 0,0 UV-I 0 W/m 6,0 C 7,1 C 0,0 km/h (0 Bft)
25.10.2022 23:51 7,2 C 6,7 C 93 % 1017,0 hPa 0,0 l/m 0,0 km/h (0 Bft) S-SO 164 0 min 0,0 UV-I 0 W/m 6,1 C 7,2 C 0,0 km/h (0 Bft)
25.10.2022 23:54 7,3 C 6,7 C 93 % 1016,9 hPa 0,0 l/m 0,3 km/h (0 Bft) S-SO 164 0 min 0,0 UV-I 0 W/m 6,2 C 7,3 C 6,4 km/h (2 Bft)
25.10.2022 23:57 7,4 C 6,7 C 93 % 1017,0 hPa 0,0 l/m 3,6 km/h (1 Bft) O-NO 69 0 min 0,0 UV-I 0 W/m 6,3 C 7,4 C 8,0 km/h (2 Bft)
_ Min-Zeit 23:12 20:21 15:15 00:00 - 19:45 - - - - - 23:12 07:12 19:45
Minimum _ 6,8 C 5,6 C 74 % 1014,5 hPa - 0,0 km/h (0 Bft) - - - - - 5,6 C 5,0 C 0,0 km/h (0 Bft)
_ Max-Zeit 15:12 15:12 21:12 12:30 00:00 04:57 - - 13:06 14:33 15:06 00:51 16:03 07:12
Maximum _ 14,5 C 22,2 C 93 % 1018,9 hPa 0,0 l/m 19,4 km/h
S-SW (3 Bft)
- - 3 min 2,0 UV-I 534 W/m 10,3 C 13,4 C 37,0 km/h
S-SO (5 Bft)
Durchschnitt _ 11,3 C 11,1 C 87 % 1017,2 hPa #0,0 l/m 10,2 km/h (2 Bft) S-SW - #36 min. 1,0 UV-I 134 W/m 9,2 C 8,7 C 17,1 km/h (3 Bft)